GFSFLT1_850_temp_000.txt.gz
Temp
11 11 11 11 11 12 12 11 12 12 12 12 10 11 12 12 12 12 11 11 11 11 14 14 14 14 14 14 13 13 13 13 12
11 11 11 12 13 12 12 12 12 13 13 13 12 11 12 12 12 12 12 12 12 12 13 14 14 14 14 14 13 13 13 13 13
11 12 12 12 12 12 12 11 11 12 12 13 13 13 13 13 12 12 12 12 12 10 12 13 14 14 14 13 13 13 13 12 12
12 11 12 12 12 10 11 10 11 11 12 12 13 13 13 13 12 12 13 12 12 12 10 13 14 14 13 13 13 13 13 12 12
14 13 13 13 12 11 10 12 11 11 12 12 12 13 13 13 13 13 12 12 12 12 11 12 13 13 13 13 13 13 13 13 12
14 14 15 14 13 13 13 11 12 12 12 12 12 13 13 13 13 13 13 12 12 12 12 10 11 13 13 13 13 13 13 13 12
15 15 14 13 13 13 13 12 12 12 12 12 12 12 13 13 13 13 12 12 11 11 12 11 10 11 13 13 13 13 12 12 12
15 15 14 14 14 13 13 12 12 12 13 13 13 12 12 13 13 13 13 12 12 12 12 11 10 10 10 11 12 12 12 13 12
16 15 15 15 14 14 13 13 13 13 13 13 13 13 13 13 13 13 13 13 12 12 12 12 10 10 10 10 10 11 12 12 12
16 16 15 15 14 14 14 14 13 13 13 13 13 13 13 13 13 13 14 13 12 12 12 12 11 10 10 10 10 10 11 12 12
16 15 15 14 14 14 14 14 13 14 13 13 13 13 13 13 13 13 13 13 13 12 12 12 12 11 10 11 11 11 11 11 11
14 14 14 14 14 13 13 13 13 13 13 13 12 12 13 13 13 13 13 13 13 13 13 12 12 12 11 10 11 11 11 11 11
14 14 14 13 13 12 12 12 12 12 12 12 12 12 12 12 12 12 12 12 13 13 13 12 12 12 11 11 10 10 10 11 11
13 13 13 13 12 12 12 12 12 12 11 11 12 11 11 11 11 12 12 12 12 12 12 12 12 12 12 11 11 11 11 11 10
13 12 12 12 12 12 12 12 12 12 12 12 12 12 12 12 12 13 13 13 13 13 12 12 13 13 12 12 12 11 11 11 11
13 13 12 12 12 12 12 12 12 12 12 11 12 13 13 13 13 14 14 14 13 13 13 13 13 13 13 13 13 13 12 12 11
12 12 12 11 12 12 12 11 11 11 11 10 10 10 11 11 12 12 12 12 12 12 12 12 12 13 13 13 13 13 13 13 13
12 11 11 11 11 11 11 10 10 8 9 10 10 10 10 10 10 11 12 12 12 12 12 12 12 12 12 12 12 13 13 13 13
11 11 11 11 11 10 10 10 10 9 9 9 9 9 9 9 10 10 10 10 11 12 12 11 11 11 11 11 12 12 13 12 12
11 11 11 10 10 9 9 9 9 9 8 8 8 8 9 8 8 8 9 9 9 10 11 11 11 11 11 11 12 12 12 12 13

GFSFLT1_850_temp_003.txt.gz
Temp
11 11 12 12 12 12 12 12 11 11 11 10 10 11 10 11 11 12 12 12 12 12 10 11 11 12 13 13 13 13 13 13 13
12 11 12 12 12 12 11 12 12 12 12 11 10 10 10 11 11 11 12 12 11 11 10 11 13 13 13 13 13 13 13 13 13
12 11 11 11 12 12 10 10 10 11 11 12 12 10 10 11 12 11 11 11 11 11 10 10 13 13 13 13 13 13 13 13 13
12 11 11 11 11 10 10 10 10 10 10 11 11 12 12 11 12 12 11 11 11 11 11 10 10 10 12 13 13 13 13 13 13
12 11 11 11 11 11 10 10 10 10 10 11 11 11 11 11 12 12 12 12 11 11 11 10 10 10 11 13 13 13 13 13 12
13 13 13 13 12 12 12 10 10 10 11 12 11 11 11 12 12 13 13 12 12 12 12 10 10 10 10 11 12 13 13 13 13
15 15 14 14 14 13 13 13 13 12 12 13 12 12 12 13 13 13 13 13 13 13 12 12 11 10 10 10 11 12 12 12 12
15 15 15 14 14 14 14 13 13 13 13 13 13 13 13 13 14 14 14 14 13 13 13 12 12 11 10 10 10 10 10 11 12
15 15 14 14 14 14 14 14 13 13 13 13 13 13 13 14 14 14 14 14 14 14 13 13 13 12 11 10 11 11 11 11 11
15 14 14 14 14 13 13 13 13 13 13 13 13 13 13 13 13 13 14 13 13 13 13 13 13 13 13 12 11 11 11 11 11
14 14 14 14 13 12 12 12 12 12 12 12 12 12 12 12 12 13 13 13 13 13 13 12 13 13 13 12 11 11 12 11 11
13 13 13 13 13 13 12 12 12 12 12 12 12 12 12 12 12 13 13 13 13 13 12 12 12 12 12 12 11 11 12 12 11
13 13 13 13 13 13 13 13 13 13 12 12 12 12 13 13 12 12 13 13 13 14 14 13 13 12 12 11 11 11 11 12 11
14 13 13 13 13 13 13 13 12 13 13 12 13 13 13 13 13 13 13 14 14 14 14 14 13 13 12 12 12 12 12 12 11
13 13 12 12 12 12 12 12 12 12 12 11 12 12 12 13 13 13 13 13 14 14 14 13 13 13 13 12 12 12 12 12 11
12 12 12 12 12 11 11 11 11 12 10 9 10 10 10 11 11 12 12 12 13 13 13 13 13 13 13 13 13 13 13 13 12
12 11 11 11 11 11 11 10 10 10 10 8 8 9 10 11 10 10 11 11 12 12 12 12 12 12 12 12 12 12 12 12 12
11 11 11 11 11 11 10 10 9 9 9 9 7 8 9 7 9 9 10 10 10 10 11 11 11 11 11 11 11 12 12 12 12
11 11 11 10 10 9 9 9 8 8 7 7 7 8 6 6 7 8 8 8 8 9 9 10 10 10 11 11 11 11 12 12 12
11 10 10 9 9 8 8 8 7 6 5 5 4 4 4 5 5 5 6 6 6 7 7 8 8 8 8 10 11 11 11 11 11

GFSFLT1_850_temp_006.txt.gz
Temp
12 12 12 12 12 12 12 12 12 11 11 11 10 10 10 10 10 10 10 11 11 12 12 10 12 11 11 12 12 13 13 13 13
13 12 11 11 11 12 11 11 11 11 12 12 12 10 10 10 10 10 10 10 10 11 10 10 10 11 10 10 11 12 13 13 13
13 13 12 11 11 11 10 10 11 10 10 10 11 11 10 10 9 10 10 10 12 11 10 10 10 10 11 11 12 12 13 13 13
13 12 11 11 11 11 11 10 11 11 11 10 10 10 11 10 10 11 10 10 12 11 10 10 10 10 10 10 10 11 11 13 13
13 12 12 12 11 12 13 13 12 12 11 12 12 12 12 12 10 10 10 12 13 12 12 10 10 10 10 10 10 11 12 11 13
13 13 13 13 13 14 14 14 13 13 13 13 13 13 13 11 11 11 13 14 14 13 13 12 11 10 10 10 10 10 11 12 12
14 14 14 14 14 14 14 14 14 14 12 11 12 12 11 11 11 12 14 14 14 14 14 14 13 13 11 11 11 11 10 10 11
14 14 14 14 14 14 12 13 12 12 11 11 11 11 11 11 11 12 14 14 14 14 14 14 14 14 13 13 12 11 11 10 11
14 14 13 13 12 12 12 11 11 11 11 11 11 11 11 11 11 12 15 15 14 14 13 14 14 14 14 13 13 12 11 11 11
13 12 12 12 12 12 12 12 12 12 12 12 12 12 12 12 11 12 14 15 15 14 14 13 13 13 14 14 14 13 13 11 11
13 13 13 13 12 12 12 12 12 12 12 12 12 12 11 11 11 11 12 14 14 14 14 13 13 13 13 13 13 13 13 12 12
14 14 14 12 12 13 12 12 11 11 11 11 11 11 11 11 11 11 11 11 13 14 14 13 13 13 13 13 13 13 13 13 13
14 14 12 13 13 12 11 11 11 11 11 11 11 10 11 11 11 11 11 11 11 12 14 14 13 13 13 12 12 12 12 12 12
14 13 13 13 12 11 11 10 10 10 10 9 10 10 10 11 11 11 11 11 11 12 13 13 13 13 13 13 12 11 11 11 11
13 12 12 12 12 12 11 10 10 10 10 10 10 10 11 11 11 11 12 11 11 11 11 12 12 13 13 13 13 12 12 12 11
12 12 12 12 12 11 11 10 9 9 9 9 9 9 11 12 12 11 10 11 12 11 11 11 10 11 11 12 12 12 12 12 11
12 11 11 11 11 10 10 9 8 7 7 8 7 9 10 11 9 10 10 10 11 11 10 10 10 10 10 9 10 11 11 11 11
11 11 11 10 10 9 9 8 7 6 6 6 6 8 8 6 7 8 9 9 9 9 9 9 9 10 10 9 9 11 11 11 10
11 10 10 9 9 8 8 7 7 5 5 5 5 5 5 5 6 7 7 7 7 7 7 7 7 8 9 9 9 9 9 10 9
10 9 9 8 8 7 7 6 6 5 4 4 4 4 4 4 4 4 5 5 5 6 6 6 7 7 8 7 7 7 7 7 7

GFSFLT1_850_temp_009.txt.gz
Temp
13 12 12 11 11 12 12 12 12 12 12 12 12 11 10 10 10 11 11 11 12 11 12 13 11 12 11 11 11 11 13 13 13
13 13 12 11 11 11 12 10 11 11 11 11 12 12 12 11 10 11 11 11 11 10 12 11 11 11 11 11 10 11 10 12 13
13 13 12 11 11 11 12 11 11 11 11 11 12 13 13 13 12 13 11 11 12 13 13 12 10 10 10 11 12 13 14 13 13
13 13 12 12 12 12 13 13 14 13 13 13 14 14 14 13 13 12 11 12 12 14 14 14 10 10 11 11 11 12 13 13 13
13 13 13 13 14 14 14 14 14 14 14 14 14 14 14 14 12 12 12 12 14 14 14 14 14 11 11 11 11 11 12 13 13
13 13 14 14 14 14 14 14 14 14 15 14 13 13 14 12 12 12 12 13 14 14 15 14 14 14 13 11 12 11 11 12 12
14 15 15 15 15 14 14 14 14 14 14 12 13 13 12 12 12 12 13 14 15 14 15 15 15 15 14 14 13 13 11 11 11
13 13 13 13 13 14 12 12 12 12 12 12 12 12 12 12 12 12 12 13 14 14 14 14 14 14 15 15 14 14 14 13 12
13 13 13 12 12 12 12 12 12 13 13 13 13 13 13 12 12 12 12 12 12 13 14 14 13 13 13 14 14 14 14 14 13
13 13 13 13 13 12 13 12 13 13 13 13 13 13 13 13 13 13 12 12 12 12 12 13 13 13 13 13 13 14 14 14 14
12 12 13 13 12 12 12 12 12 12 12 12 12 13 13 13 13 13 12 12 12 12 12 13 13 13 12 11 12 13 13 14 14
12 12 12 12 12 12 12 12 12 12 12 12 12 12 12 12 12 12 12 12 12 12 12 11 12 13 13 12 11 11 11 11 12
12 12 11 11 11 11 11 11 11 11 11 11 11 11 11 11 11 11 12 12 12 12 11 11 11 11 12 12 12 12 11 11 11
11 12 12 11 11 11 12 11 11 11 11 11 11 11 11 11 11 12 12 12 12 12 12 12 11 11 11 11 11 12 12 12 11
12 12 12 12 11 11 11 10 10 10 9 9 9 9 10 11 11 12 11 11 12 12 12 12 12 11 11 10 10 11 11 11 11
12 12 12 12 11 10 10 9 9 9 8 8 8 9 10 11 11 10 10 11 11 10 10 10 10 10 10 10 10 10 10 10 10
12 11 11 11 10 9 9 8 8 7 7 6 7 7 8 9 9 8 8 8 9 9 9 10 10 10 9 9 9 9 9 9 9
11 10 10 9 9 8 8 7 6 5 6 6 6 6 6 6 6 6 7 8 8 7 8 8 7 8 8 8 8 8 8 8 7
10 10 9 8 8 7 7 6 6 5 4 5 5 5 5 5 5 6 5 5 6 5 5 5 5 6 7 7 7 7 7 7 7
10 9 8 7 7 7 6 6 6 5 4 3 3 3 4 4 4 4 4 3 3 4 4 4 4 4 5 6 5 6 5 5 4

GFSFLT1_850_temp_012.txt.gz
Temp
13 12 12 12 12 12 13 14 13 13 13 12 13 13 13 14 14 14 12 11 12 12 11 12 13 13 13 12 12 12 12 14 14
13 13 12 12 13 13 13 14 14 14 14 14 13 14 15 14 15 15 14 13 12 12 11 13 13 13 13 13 13 12 11 12 13
13 14 13 13 14 14 14 14 14 14 14 14 14 14 14 14 15 15 15 13 12 13 14 15 15 14 15 13 13 14 14 13 13
13 14 13 14 14 15 15 14 14 15 15 14 14 14 14 14 15 15 15 15 12 13 15 15 15 15 14 14 12 12 14 14 14
14 14 14 14 14 15 15 15 15 15 15 15 14 14 14 14 15 16 15 15 14 13 14 15 15 15 15 14 13 12 11 12 13
13 13 14 15 15 14 15 15 15 15 15 14 13 13 13 14 14 14 13 12 13 13 13 14 14 14 15 14 14 12 13 12 11
13 14 14 14 14 14 14 14 14 13 14 14 13 13 13 12 12 12 12 12 12 12 13 13 13 13 14 14 14 13 12 12 12
13 13 13 13 14 13 13 13 13 13 13 13 13 13 13 13 12 13 13 13 12 12 12 12 12 12 13 13 13 13 14 13 12
13 13 13 13 13 13 13 12 12 13 13 13 13 13 13 13 13 13 13 13 12 12 12 12 12 12 11 11 11 12 12 13 13
13 13 13 13 12 13 12 13 13 12 13 13 13 13 13 13 13 13 13 12 12 12 12 12 12 11 11 12 11 11 11 11 11
13 12 13 13 13 13 12 12 12 12 12 12 12 12 12 12 12 12 13 12 12 12 12 12 12 12 11 11 11 12 11 11 11
12 12 12 12 12 11 12 12 11 12 12 11 11 11 11 11 11 11 11 11 12 12 12 12 11 11 12 12 12 12 12 11 11
12 12 12 11 12 12 12 12 12 12 11 11 11 11 11 12 12 11 11 11 12 12 11 11 11 11 11 11 11 11 11 12 12
12 12 12 12 12 12 11 11 11 11 11 10 10 10 11 11 10 10 10 11 11 11 11 11 11 11 11 10 10 10 10 10 11
12 12 12 11 11 11 11 11 10 10 9 9 9 10 10 10 9 10 10 11 11 11 11 11 10 10 10 10 10 10 9 10 10
12 12 11 11 11 10 9 9 9 9 8 8 8 8 8 8 9 9 10 9 9 9 9 9 9 9 10 10 10 10 9 9 8
11 11 11 10 10 9 9 8 7 8 7 5 6 6 6 7 6 6 7 6 7 7 7 7 7 6 6 6 7 8 8 7 6
11 11 10 9 9 8 7 7 6 7 7 6 4 4 4 4 5 5 6 6 5 5 4 4 4 4 4 4 5 5 6 5 5
10 10 9 8 8 7 7 6 6 6 5 5 5 4 3 3 3 4 3 3 3 3 2 2 3 3 3 3 4 4 4 4 3
10 9 8 8 7 7 6 6 6 5 4 3 3 3 2 2 1 1 2 1 1 1 1 2 1 1 1 2 2 2 3 3 2

GFSFLT1_850_temp_015.txt.gz
Temp
13 12 12 13 14 15 15 15 15 15 14 14 13 13 13 14 14 14 13 13 13 13 11 12 13 13 13 13 12 12 12 11 13
13 13 12 13 14 14 14 15 14 14 14 14 14 15 15 15 15 15 14 14 13 12 11 11 11 14 14 14 13 13 12 11 12
13 13 13 13 14 14 14 14 14 14 14 14 15 15 14 15 15 15 15 14 13 12 11 11 12 13 13 11 12 11 13 14 13
14 13 14 14 14 14 14 14 14 14 14 14 14 14 14 14 14 14 14 14 13 13 11 11 12 14 14 13 11 11 11 11 13
14 14 14 14 14 14 14 14 14 14 14 14 14 13 13 13 14 14 13 13 13 13 11 11 12 13 14 14 14 11 11 11 12
14 14 14 14 14 14 14 14 14 13 13 13 13 13 13 13 13 13 13 13 13 12 12 13 12 12 12 13 13 12 12 11 11
14 14 13 13 13 14 13 13 13 13 13 13 13 13 13 13 13 13 13 12 13 12 12 12 12 12 12 12 12 12 11 10 11
13 13 13 13 13 13 13 13 13 13 13 13 13 13 13 12 12 13 12 12 13 12 12 12 12 12 12 11 11 11 11 11 11
13 13 13 13 13 13 13 13 13 13 13 12 12 12 12 12 13 13 13 13 13 12 12 12 12 12 12 12 12 12 12 11 11
13 13 13 13 13 13 13 13 13 12 12 12 12 12 12 12 12 12 12 12 12 12 12 12 12 12 12 12 12 12 12 12 12
13 12 12 12 12 13 12 12 12 12 12 12 12 12 12 12 12 12 11 11 11 11 11 11 11 11 11 11 11 11 12 12 12
12 12 12 12 12 12 12 12 12 12 12 12 12 12 12 11 11 11 11 10 10 11 11 11 11 11 11 11 11 11 11 11 11
11 11 12 12 12 12 12 12 12 12 12 11 11 11 11 11 10 10 10 10 10 10 11 11 11 11 11 10 10 10 10 9 10
12 12 12 12 12 12 12 11 11 10 10 10 10 10 10 10 10 10 10 10 10 10 10 10 10 10 10 9 9 9 10 9 10
12 12 12 12 11 11 11 10 10 9 9 9 9 10 9 9 9 9 9 9 10 10 9 9 9 9 9 9 9 9 8 8 7
12 11 11 11 11 10 9 9 9 8 8 8 8 9 8 8 8 9 9 9 8 8 7 7 7 7 7 7 7 7 6 6 5
11 11 11 10 9 9 8 8 7 7 6 5 6 5 7 6 6 6 6 7 6 6 6 5 5 4 3 4 4 4 4 3 3
11 10 10 9 9 8 7 7 6 6 6 5 4 3 3 2 4 4 5 4 4 3 3 3 2 2 2 2 2 2 3 2 2
10 9 9 8 8 7 6 6 6 5 5 5 4 3 2 1 1 2 3 2 2 2 1 1 0 1 0 0 0 1 -0 0 1
9 9 8 8 7 6 6 6 5 5 4 3 3 3 2 1 -0 -1 -1 -0 0 0 -0 -0 -1 -1 -1 -1 -1 -1 -1 -1 -0

GFSFLT1_850_temp_018.txt.gz
Temp
13 12 13 13 13 14 14 14 14 13 13 13 13 13 13 13 13 14 13 13 13 12 11 11 11 12 12 12 12 12 12 12 11
13 13 13 13 14 14 14 14 14 14 14 14 13 14 13 13 13 13 13 13 13 12 11 11 11 11 11 10 11 10 10 10 11
13 13 13 14 14 14 14 14 14 14 14 14 14 14 13 13 13 13 14 13 13 13 11 11 11 10 10 10 11 11 11 11 10
13 13 14 14 14 14 14 14 14 14 14 14 14 13 13 13 13 13 13 13 13 13 13 11 11 11 12 12 11 10 11 11 11
14 14 14 14 14 14 14 14 13 13 13 13 13 13 13 13 13 13 13 13 12 12 13 12 12 12 12 12 12 12 12 10 11
14 14 14 14 14 14 13 13 13 13 13 13 13 13 13 13 13 13 13 12 13 12 12 12 12 12 12 12 12 12 12 12 11
14 14 13 13 13 13 13 13 13 13 13 13 13 13 13 13 13 13 13 13 12 12 12 12 12 12 12 12 12 12 12 11 11
13 13 13 12 12 12 13 13 13 13 13 13 13 12 13 12 12 12 12 12 12 12 12 12 12 12 12 12 12 12 12 12 12
13 12 12 12 13 13 13 12 13 13 12 12 12 12 12 12 12 12 12 12 12 12 12 12 12 12 11 11 12 12 12 12 12
12 12 12 12 12 12 12 12 13 12 12 12 12 12 12 12 12 12 12 12 12 12 11 11 11 11 11 11 11 11 11 11 11
12 12 12 12 12 12 12 12 12 12 13 13 13 12 12 12 12 11 11 11 11 11 10 10 11 11 11 11 11 11 11 10 11
12 12 12 12 12 12 12 12 12 12 12 12 12 12 11 11 11 11 10 9 9 10 10 10 10 10 10 10 10 10 10 10 10
11 11 11 11 12 12 12 12 12 12 11 11 11 11 10 10 9 9 9 9 9 10 10 10 10 9 9 9 9 10 10 10 10
11 11 12 12 12 12 11 11 10 10 10 10 10 10 9 9 9 9 9 9 9 9 9 8 8 8 8 9 9 8 8 8 8
12 12 12 11 11 11 10 10 9 8 8 9 9 9 9 8 8 9 9 9 9 8 8 8 8 8 8 8 8 8 8 7 6
11 11 11 11 10 10 9 8 8 8 8 8 8 8 8 8 8 8 8 8 7 7 6 6 6 6 6 6 5 5 5 3 3
11 11 10 10 9 8 8 8 7 6 6 6 6 6 7 6 7 6 6 6 5 6 6 5 5 5 4 4 3 4 4 2 1
10 10 9 9 8 7 7 6 6 6 5 4 4 3 2 2 4 5 4 4 4 4 4 4 3 2 1 1 1 1 1 -0 0
10 9 9 8 7 6 6 5 5 5 5 4 3 2 1 0 0 2 3 2 2 2 2 1 0 0 -0 -1 -1 -1 -2 -2 -1
9 9 8 7 6 6 5 5 4 4 3 3 3 2 1 0 -1 -2 -1 0 1 2 1 0 -0 -1 -2 -2 -2 -3 -3 -2 -2

GFSFLT1_850_temp_021.txt.gz
Temp
12 13 12 12 13 14 14 14 14 14 14 14 13 13 13 13 13 13 13 13 13 12 12 11 11 11 11 11 10 12 12 12 12
13 13 13 13 13 14 14 14 14 14 14 14 14 14 13 13 13 13 13 13 13 13 12 11 11 11 11 11 11 11 10 11 11
13 13 13 13 14 14 14 14 14 14 14 14 14 13 13 13 13 13 13 13 13 13 13 12 11 11 11 12 12 11 11 11 11
13 13 13 14 14 14 14 14 13 13 13 13 13 13 12 12 12 12 12 12 12 12 12 12 12 12 11 12 12 12 12 11 11
13 14 14 14 13 13 13 13 13 13 12 12 12 12 12 12 12 12 12 12 12 12 12 12 12 12 12 12 12 12 12 11 11
14 14 13 13 13 13 12 12 12 12 12 12 12 12 12 12 12 13 13 12 12 12 13 12 12 12 12 12 12 12 12 12 11
14 13 13 13 12 12 12 12 12 12 12 13 12 13 13 12 13 12 12 13 13 12 12 12 12 12 12 12 12 12 12 12 12
13 13 13 12 12 12 12 12 12 12 12 12 12 12 12 12 12 12 12 12 12 12 12 12 12 12 12 12 12 12 12 12 12
13 12 12 12 13 12 12 12 12 12 12 12 12 12 12 12 12 11 11 11 11 11 11 11 11 11 11 11 11 10 11 11 11
12 12 12 12 12 12 12 12 12 12 12 12 12 12 12 12 12 11 11 11 11 11 11 11 10 10 10 10 10 11 10 10 10
12 12 12 12 12 12 12 11 11 12 12 12 12 12 12 12 11 11 11 10 10 10 10 10 10 10 10 10 10 10 10 10 10
12 12 12 11 11 11 11 12 12 12 12 12 12 11 11 11 11 10 10 9 9 9 9 9 9 9 9 9 9 10 10 10 10
12 12 11 11 11 12 12 12 12 11 11 11 11 10 10 10 9 9 9 9 9 9 9 9 9 8 8 9 9 9 9 9 9
11 11 11 12 12 11 11 11 11 10 10 10 10 9 10 9 9 9 8 9 9 9 8 8 7 8 8 8 8 8 8 8 8
11 12 11 11 11 11 10 10 9 8 8 8 9 9 9 9 8 8 8 8 8 7 7 7 7 7 7 7 7 7 7 7 7
11 11 11 11 10 10 9 8 8 7 7 7 8 8 8 8 7 8 8 7 7 7 7 6 6 7 6 7 6 6 6 5 3
11 11 10 10 10 9 8 7 7 6 5 5 5 5 6 7 6 7 6 6 5 6 5 6 5 5 6 5 5 5 4 2 0
11 10 10 9 9 8 7 6 6 5 4 4 3 3 2 2 4 4 4 4 5 5 5 5 4 4 4 3 3 3 2 -0 -1
10 10 9 8 8 7 6 6 5 4 4 4 3 2 1 -0 0 2 3 3 3 3 3 3 3 2 2 0 -1 -1 -2 -2 -2
9 9 8 8 7 7 6 5 4 4 3 2 2 2 1 0 -1 -2 -0 2 2 1 1 1 1 1 -0 -2 -2 -3 -3 -3 -3

GFSFLT1_850_temp_024.txt.gz
Temp
12 12 12 13 14 14 14 14 14 14 14 14 14 14 14 13 13 13 13 13 13 13 13 12 11 11 11 12 12 13 12 12 12
13 13 12 13 13 13 13 13 13 13 13 13 13 13 13 13 13 13 13 13 13 13 13 13 11 11 11 11 11 11 11 12 11
13 13 12 13 13 13 13 13 13 13 13 13 13 13 12 12 12 12 12 12 12 12 12 12 12 12 11 12 12 12 12 12 11
13 13 13 14 13 13 13 13 12 12 12 12 12 12 12 12 12 12 12 12 12 12 12 12 12 12 12 12 12 12 12 12 12
13 13 13 13 13 12 12 12 12 12 12 12 12 12 12 12 12 12 12 12 12 12 12 13 12 12 12 12 12 12 12 12 12
13 13 13 13 12 12 12 12 12 13 12 12 12 12 12 12 12 12 12 12 12 12 12 12 12 12 12 12 12 12 12 12 12
13 13 13 12 12 12 12 12 12 12 11 12 12 12 12 12 12 12 12 12 12 12 12 12 12 12 12 12 12 12 12 12 12
13 12 12 12 12 12 12 12 12 12 12 12 12 11 11 11 11 12 12 12 11 11 11 11 11 11 11 11 11 11 11 11 11
12 12 12 12 12 12 12 12 12 12 12 11 11 11 12 12 12 12 11 11 11 11 11 11 10 10 10 11 11 11 10 10 11
12 11 12 11 12 12 12 12 11 11 11 12 12 12 12 12 11 11 11 11 10 10 10 9 10 10 10 10 10 10 10 10 11
12 12 11 11 11 11 11 11 11 12 12 12 11 11 11 11 11 10 10 9 9 9 9 9 9 9 9 9 9 10 10 10 10
12 12 11 11 11 11 11 12 12 11 11 11 11 10 10 10 10 9 9 9 9 9 9 9 9 9 9 9 9 9 9 9 10
12 12 11 11 11 11 11 12 12 11 11 11 10 10 9 9 9 9 9 8 9 9 9 9 8 8 8 8 8 8 8 9 9
12 11 10 11 11 11 11 11 11 10 10 10 9 9 9 9 9 8 8 8 9 8 8 8 7 8 8 8 8 8 8 8 9
12 11 11 11 11 11 11 10 9 9 9 9 9 9 9 9 8 8 8 8 8 8 7 7 7 7 7 7 7 7 7 7 7
12 11 11 11 11 11 10 9 9 8 8 8 9 8 8 8 8 8 8 7 7 7 6 6 6 6 6 6 6 6 6 5 5
11 11 11 10 10 10 9 9 8 7 6 6 6 5 7 8 7 6 6 6 5 5 5 5 5 5 5 5 4 5 4 3 1
11 11 10 10 10 9 9 8 7 6 5 4 3 3 3 2 4 5 4 3 3 4 4 4 4 4 4 4 3 3 2 1 -1
10 10 10 9 9 8 8 7 6 5 4 4 3 2 1 -0 0 2 3 3 2 2 2 3 3 3 2 2 1 1 0 -2 -2
10 10 9 9 8 7 7 6 5 4 3 3 2 2 1 1 -2 -2 0 2 2 2 1 1 1 2 1 0 -1 -2 -4 -3 -3

GFSFLT1_850_temp_027.txt.gz
Temp
12 12 12 13 13 13 13 13 13 13 13 13 13 13 13 13 12 13 13 13 13 13 13 12 12 12 12 12 12 13 13 12 12
13 13 12 13 13 13 13 13 13 13 13 13 13 13 12 12 12 12 12 12 12 13 13 13 13 11 12 12 12 11 13 13 13
13 13 12 13 13 13 13 13 13 12 12 12 12 12 12 12 12 12 12 12 12 12 12 13 13 13 12 12 12 13 13 13 13
13 13 13 13 13 13 12 12 12 12 12 12 12 12 12 12 12 12 12 12 12 13 13 13 13 13 12 13 12 13 13 13 13
13 13 13 13 12 12 12 12 12 12 12 12 12 12 12 12 12 12 12 12 12 12 12 12 12 12 12 12 12 12 12 12 13
13 13 13 12 12 12 12 12 12 12 12 12 12 12 12 12 12 12 12 12 12 12 12 12 12 12 12 12 12 12 12 12 12
13 13 12 12 12 12 12 12 12 12 12 12 12 12 12 12 12 12 12 12 12 11 12 12 12 11 12 12 12 12 12 12 12
13 12 12 12 12 12 12 12 12 12 12 12 11 11 11 12 12 12 12 12 11 11 11 11 11 11 11 11 11 11 11 11 11
12 12 12 12 12 12 12 12 12 12 11 11 12 12 12 12 12 12 12 11 11 10 10 10 10 10 10 10 10 10 10 11 11
12 11 11 12 11 12 12 11 11 11 11 12 12 12 11 11 11 11 11 10 10 10 9 9 9 9 9 9 9 9 10 10 10
12 12 12 12 11 11 11 11 11 11 11 11 11 11 11 11 10 10 9 9 9 9 9 9 9 9 9 9 9 9 9 9 10
13 13 12 12 11 11 11 12 11 11 11 11 10 10 10 10 10 9 8 8 8 8 9 8 8 8 8 8 8 8 8 9 9
12 12 12 11 11 12 12 11 11 11 11 10 10 10 10 9 9 8 8 8 8 8 8 8 8 8 7 8 8 8 8 8 8
12 12 12 11 12 12 11 11 11 11 10 10 10 10 10 9 8 7 7 7 7 7 7 7 7 7 7 7 7 7 7 7 7
12 11 12 12 11 11 11 11 10 10 9 9 9 10 9 9 7 7 7 7 7 6 6 7 7 7 6 7 7 6 6 7 6
12 11 12 11 11 10 10 10 9 9 9 9 9 9 8 8 7 7 7 7 7 6 6 6 5 6 6 6 6 6 6 6 6
11 12 12 11 10 10 10 9 9 8 8 7 7 7 7 7 7 7 6 6 6 5 5 5 5 5 5 5 5 5 5 5 4
11 11 11 10 10 9 9 9 8 7 7 6 5 4 3 3 5 6 5 5 5 5 5 5 5 5 4 4 4 4 3 3 2
11 11 10 10 9 9 8 8 7 6 6 5 4 3 2 1 0 2 2 2 3 3 4 4 4 3 2 2 2 1 1 0 -2
10 10 10 9 9 8 8 7 6 5 5 4 4 3 2 2 -1 -1 1 2 2 2 2 3 2 2 1 0 -1 -1 -4 -4 -3

GFSFLT1_850_temp_030.txt.gz
Temp
13 12 13 13 13 13 13 13 13 13 13 13 13 13 13 13 11 11 11 13 13 13 14 13 13 13 12 12 12 12 13 13 13
13 13 13 13 13 13 13 13 13 13 13 13 13 13 13 13 12 12 13 13 13 13 13 13 13 13 13 12 12 12 12 13 13
13 13 13 13 13 13 13 13 13 13 13 13 13 13 12 12 12 12 12 12 13 13 13 13 13 13 13 13 13 12 13 13 13
13 13 12 13 13 13 13 13 13 13 13 13 12 12 12 12 12 12 12 12 12 13 13 13 13 12 13 13 13 13 13 13 13
13 13 13 13 13 13 13 12 12 12 12 12 12 12 12 12 12 12 12 12 12 12 12 13 12 12 12 12 12 12 12 12 12
13 13 13 13 12 12 12 12 12 12 12 12 12 12 12 11 12 11 12 12 12 12 12 12 12 12 12 12 12 12 12 12 12
13 13 13 12 12 12 12 12 12 12 12 12 12 12 12 12 12 11 12 12 12 11 12 11 12 12 12 12 11 11 12 12 12
13 12 12 12 12 11 12 12 12 12 12 12 12 12 12 12 12 12 12 12 11 11 10 11 11 11 11 11 11 11 11 11 11
12 12 11 12 12 12 12 12 12 12 12 12 12 12 12 12 12 11 11 11 10 10 9 10 10 10 10 9 10 10 10 10 10
12 12 12 12 12 12 12 11 11 12 12 12 12 12 11 11 11 10 11 10 10 9 9 9 9 9 9 9 9 9 9 9 9
12 13 12 12 12 12 11 11 11 12 12 12 11 11 11 10 10 10 9 9 9 9 9 9 9 9 9 9 9 9 9 9 9
13 13 13 12 11 12 11 12 12 12 11 11 11 10 10 10 9 9 8 8 8 8 8 8 8 8 8 8 8 8 8 8 9
13 13 13 12 12 11 12 11 11 11 11 10 10 10 9 9 8 8 8 7 7 7 8 8 8 8 8 8 8 8 8 8 8
13 12 12 12 11 12 11 11 11 11 11 10 10 10 9 9 8 7 7 7 7 7 7 7 7 7 7 7 7 7 7 7 7
12 12 12 11 12 11 11 11 11 11 10 10 10 10 9 8 7 6 6 7 7 7 7 6 6 7 7 7 7 7 7 7 6
11 11 11 12 11 11 11 11 10 10 9 9 8 8 8 7 6 6 7 6 7 6 6 6 6 6 6 6 6 6 6 6 6
12 10 12 11 11 11 11 10 10 9 9 8 7 7 7 5 6 7 6 5 6 6 6 6 6 5 5 5 5 5 5 5 5
11 11 11 11 11 11 10 9 9 8 8 7 6 6 7 4 5 6 5 5 4 4 5 5 5 5 4 4 4 4 3 3 3
10 11 11 11 10 10 9 9 8 7 6 5 6 5 4 3 4 3 2 2 1 1 2 3 4 3 2 2 2 2 2 2 0
10 10 10 10 10 9 9 8 7 6 6 5 4 3 2 1 1 2 3 1 1 -0 -1 -2 -1 -1 -2 -2 -2 -3 -4 -4 -4

GFSFLT1_850_temp_033.txt.gz
Temp
13 13 13 13 14 14 14 14 14 14 14 14 14 14 13 13 12 12 12 12 13 13 14 14 14 13 13 12 12 12 12 13 13
13 13 13 13 14 14 14 14 13 13 13 13 13 13 13 13 13 13 12 12 13 13 13 13 13 13 13 13 12 12 12 12 13
13 13 13 13 13 13 13 13 13 13 13 13 13 13 13 13 13 12 12 12 13 13 13 13 13 13 13 13 13 13 13 13 13
13 13 13 13 13 13 13 13 13 13 13 13 13 13 13 13 13 12 12 12 12 12 12 13 13 13 13 13 13 13 13 13 13
13 13 13 13 13 13 13 13 12 12 12 12 12 12 12 12 12 12 12 12 12 12 12 12 12 12 13 13 13 13 13 13 13
13 13 13 13 13 13 13 12 12 12 12 12 12 12 12 12 12 11 12 12 12 12 12 12 12 12 12 12 12 12 13 13 13
12 13 13 13 13 13 12 12 12 12 12 12 12 11 12 11 11 11 12 12 12 12 11 12 12 12 11 11 11 11 11 12 12
13 14 13 12 12 12 12 12 12 12 12 12 11 12 12 11 11 11 12 12 11 10 10 11 11 11 10 10 10 11 10 10 10
13 13 13 12 12 12 12 12 12 12 12 12 12 12 12 11 11 10 11 11 10 10 10 10 10 10 10 10 10 10 10 10 10
13 13 12 12 12 12 12 12 11 12 12 12 12 12 11 10 10 9 11 10 10 10 10 10 9 9 9 9 10 10 9 10 10
13 12 13 12 12 12 12 12 11 12 12 12 12 11 10 10 10 9 9 10 9 9 9 9 9 9 9 9 9 9 9 9 9
13 13 13 13 12 12 12 12 12 12 12 11 11 11 11 9 8 9 7 8 9 8 9 8 9 9 9 9 9 9 9 9 9
14 13 13 13 12 12 12 12 12 12 12 11 10 10 10 9 8 8 7 7 7 8 8 8 8 8 8 8 8 8 8 8 8
14 13 13 12 12 12 12 12 12 11 11 11 10 10 10 8 8 7 7 7 7 7 7 8 7 8 8 8 8 7 7 7 7
14 13 12 12 11 12 12 12 11 11 11 11 10 10 9 8 7 6 6 5 7 7 7 6 6 6 7 7 7 7 7 6 6
13 12 12 12 12 12 12 11 11 11 10 10 9 8 8 8 6 6 5 5 5 5 4 4 5 6 6 6 6 6 6 6 6
12 12 12 11 11 11 11 11 11 10 10 9 8 8 8 7 7 6 6 5 5 4 4 5 5 5 5 5 5 6 5 5 5
12 11 11 11 11 11 11 10 10 9 9 8 8 7 8 7 7 6 5 5 4 4 4 4 4 4 4 3 3 3 3 4 3
11 11 11 11 11 10 10 10 10 9 8 7 7 6 5 4 4 5 4 4 4 3 2 3 4 3 3 2 2 1 2 2 -1
11 11 10 10 10 10 10 10 9 8 7 6 6 4 3 3 2 2 3 3 3 2 1 1 0 0 -1 -1 -2 -3 -3 -4 -3

GFSFLT1_850_temp_036.txt.gz
Temp
13 14 14 14 14 14 14 14 14 14 14 14 14 14 13 13 12 12 12 12 13 13 13 13 13 13 13 12 12 12 12 12 13
13 13 14 14 14 14 14 14 14 14 14 13 13 13 13 13 13 12 12 12 12 13 13 13 13 13 13 13 13 12 13 13 13
13 13 14 14 14 14 14 14 14 13 13 13 13 13 13 13 13 13 12 12 12 13 13 13 13 13 13 13 13 13 13 13 13
13 13 14 14 14 14 14 13 13 13 13 13 13 13 13 12 12 12 12 12 12 12 12 12 12 12 12 13 13 13 13 13 13
13 13 14 14 14 13 13 13 13 13 13 12 12 12 12 12 12 12 12 12 12 12 12 12 12 12 12 12 12 12 13 13 13
14 14 14 14 13 13 13 12 12 12 12 12 12 12 12 12 12 12 12 12 12 12 12 12 12 12 12 12 12 12 12 12 12
13 13 13 13 13 13 12 12 12 12 12 12 12 12 12 11 12 12 12 12 12 11 12 12 11 11 11 11 11 11 11 11 12
13 13 14 13 13 12 12 12 12 12 12 12 12 13 12 12 11 12 12 11 11 10 11 11 11 10 10 10 11 11 11 11 11
13 13 13 12 12 12 12 12 12 12 12 13 12 12 12 11 11 11 11 11 11 10 10 10 10 10 10 10 10 10 10 10 10
13 13 13 12 12 12 12 12 12 12 12 13 12 12 11 11 10 11 11 10 10 10 10 9 9 9 9 10 10 10 10 10 10
13 13 13 13 12 12 12 12 12 12 13 12 12 12 11 11 10 10 10 10 10 10 9 9 9 9 9 9 9 9 9 9 9
13 13 13 13 13 12 12 12 12 13 13 12 12 12 11 10 10 9 9 9 9 9 9 9 8 8 8 8 9 9 9 9 9
13 13 13 13 12 12 12 12 13 12 12 12 12 11 11 10 9 9 8 9 8 9 8 8 8 8 8 8 8 8 8 8 8
14 14 13 13 12 12 12 12 12 12 12 12 12 11 11 10 9 8 8 8 8 7 7 8 7 8 8 8 8 8 8 7 7
14 13 13 13 12 12 12 12 12 12 12 11 11 11 10 10 9 8 7 7 7 7 7 6 7 7 6 7 7 7 7 7 6
13 13 13 13 12 12 12 12 12 11 11 11 11 10 9 9 9 8 7 6 5 6 6 6 6 6 6 6 6 6 6 6 6
13 13 13 13 12 12 12 11 11 11 11 10 10 9 8 7 8 7 7 6 6 5 5 5 5 5 5 5 5 4 4 4 4
13 12 12 12 11 12 11 11 11 11 10 9 9 8 7 8 7 7 6 6 5 5 4 4 4 4 4 4 3 3 3 2 1
12 11 12 11 11 12 11 11 10 10 10 9 8 7 7 6 6 6 6 5 4 4 4 4 3 3 3 2 2 1 1 0 -1
11 11 11 11 11 11 10 10 10 9 9 8 7 7 6 5 4 4 4 4 4 4 3 3 2 1 1 0 -0 -0 -1 -2 -2

GFSFLT1_850_temp_039.txt.gz
Temp
14 14 15 15 15 15 15 14 14 15 14 14 14 13 13 12 12 12 12 12 12 13 12 13 13 13 13 13 13 13 13 13 13
14 14 14 15 15 15 14 14 14 14 14 13 13 13 12 12 12 13 12 12 13 13 12 13 13 13 13 13 13 13 13 13 13
14 14 14 14 14 14 14 14 14 13 13 13 13 13 13 12 12 12 12 12 12 12 13 13 13 13 13 13 13 13 13 13 13
14 14 14 14 14 14 14 14 13 13 13 13 13 12 12 12 12 12 12 12 12 13 12 12 12 12 12 12 13 13 13 13 13
14 14 14 14 14 14 14 13 13 13 13 13 12 12 12 12 12 12 12 12 12 12 12 12 12 12 12 12 12 13 13 13 13
14 14 14 14 14 14 13 13 13 13 12 12 12 12 12 12 12 12 12 12 12 11 12 12 12 11 12 11 12 12 12 12 12
14 14 14 14 14 13 13 13 13 12 12 12 12 12 12 12 12 12 12 12 11 10 11 11 11 10 10 11 11 11 11 11 11
13 13 13 13 13 13 13 13 12 12 12 12 12 13 12 12 12 12 12 11 10 10 11 11 10 10 10 10 10 10 10 10 10
13 13 13 13 13 13 12 12 12 12 12 13 13 13 12 13 12 12 11 11 10 10 10 10 10 10 9 10 10 10 10 10 10
14 13 13 13 13 12 12 12 12 12 12 13 13 12 12 12 12 11 11 10 10 10 9 9 9 9 9 9 9 9 10 10 10
14 13 13 13 12 12 12 12 12 12 13 13 13 12 12 12 12 11 10 10 10 9 9 9 9 9 9 9 9 9 9 9 9
13 13 13 12 13 12 12 12 12 12 13 13 13 12 12 11 11 10 10 10 9 9 9 9 9 9 9 8 8 8 8 8 8
13 13 13 13 13 12 12 12 12 13 13 12 12 12 11 10 10 10 10 9 9 8 9 8 8 8 8 8 8 8 8 8 8
13 13 13 13 13 13 12 12 12 12 12 12 12 12 11 11 10 9 9 8 8 8 8 7 8 8 7 7 7 7 7 7 7
13 13 13 13 13 13 12 12 12 12 12 12 12 11 11 10 9 9 9 8 8 8 7 7 7 6 6 6 6 6 6 6 6
14 13 13 13 13 12 12 12 12 12 12 11 11 11 10 10 9 9 8 8 7 6 6 6 5 5 6 5 5 5 5 5 4
14 13 13 13 12 12 12 13 12 12 11 11 11 10 9 9 9 8 7 7 6 6 5 4 5 5 5 4 4 4 4 4 3
14 13 13 12 12 12 12 12 12 11 11 11 10 10 9 9 8 7 6 6 6 5 5 4 4 4 4 3 3 3 2 2 -0
13 12 13 12 12 11 12 12 12 11 11 10 10 9 9 8 8 7 6 6 5 5 5 4 4 3 2 2 2 1 1 0 -1
13 12 11 12 11 11 11 11 11 11 10 10 9 9 8 7 7 7 7 6 6 5 5 4 3 2 2 1 0 -0 -1 -1 -1

GFSFLT1_850_temp_042.txt.gz
Temp
15 15 15 14 14 14 14 14 14 14 14 14 13 12 12 12 12 12 12 12 12 13 13 13 13 13 13 13 13 13 13 12 12
15 15 15 15 15 15 14 14 14 14 14 13 13 12 12 12 12 12 12 12 12 12 12 13 13 13 13 13 13 13 12 13 13
15 15 15 15 15 14 14 14 14 13 13 13 13 12 12 12 12 12 12 12 12 13 13 13 12 13 13 13 12 12 13 13 13
15 14 14 14 14 14 14 14 13 13 13 13 12 12 12 12 12 12 12 12 12 12 12 12 12 12 12 12 13 13 13 12 12
14 15 14 14 14 14 14 13 13 13 13 12 12 12 12 12 12 12 12 12 12 11 11 12 12 12 12 12 12 12 12 12 12
14 14 14 14 14 14 13 13 13 13 13 13 13 13 12 12 12 12 12 11 11 11 11 11 11 11 11 11 11 11 11 11 12
14 14 14 14 13 13 13 13 13 13 13 12 12 13 13 12 12 12 12 11 10 10 11 10 10 10 10 11 11 10 11 11 11
14 14 14 14 13 13 13 13 12 12 12 12 12 13 13 12 12 12 11 11 9 9 10 10 10 10 10 10 10 10 10 10 10
15 14 14 14 13 13 13 12 12 12 12 12 12 13 13 13 12 12 11 11 9 9 10 10 9 9 9 9 9 10 10 10 10
14 14 14 14 13 13 13 12 12 12 12 12 12 13 13 12 12 11 11 10 10 9 9 9 9 9 9 9 9 9 9 9 9
14 13 13 13 13 12 12 12 12 12 12 13 12 12 12 12 11 11 11 10 9 9 9 9 9 8 8 8 9 9 9 9 9
14 13 13 13 12 12 12 12 12 12 12 12 12 12 12 11 11 11 10 10 9 9 9 8 8 8 8 8 8 8 8 8 8
14 14 13 13 12 12 12 12 12 12 12 12 12 12 11 11 11 10 10 9 9 8 8 8 8 8 8 7 7 7 8 8 7
14 13 13 13 12 12 12 12 11 12 12 12 12 12 11 11 11 10 9 9 9 8 8 8 7 7 7 7 7 7 6 7 7
13 13 13 12 12 12 12 12 12 12 12 12 12 12 11 11 10 10 9 8 8 8 7 7 7 6 6 6 6 6 6 5 6
14 13 13 13 12 13 12 12 12 12 12 12 11 11 11 10 10 9 8 8 7 7 6 6 6 6 5 5 5 5 5 4 4
15 14 13 13 12 12 12 12 12 12 12 12 11 11 10 10 9 8 8 7 7 6 6 6 5 5 5 5 4 4 4 4 3
15 15 13 13 13 13 12 12 12 12 12 11 11 11 10 10 9 8 7 7 6 6 5 5 4 4 4 4 4 3 3 3 1
16 15 14 13 13 12 12 12 12 12 12 11 11 10 10 9 8 7 7 6 6 5 5 4 4 4 4 4 3 3 2 1 -1
16 16 15 13 12 12 12 11 11 11 11 11 10 10 9 9 8 8 7 6 5 5 5 4 4 4 3 3 2 2 1 -0 -1

GFSFLT1_850_temp_045.txt.gz
Temp
16 15 15 14 14 14 14 14 14 14 14 14 13 13 12 12 12 12 12 12 13 13 13 13 13 13 13 13 13 12 12 12 12
16 16 15 15 15 14 14 14 14 14 13 13 13 13 12 12 12 12 12 12 12 13 13 13 13 13 13 12 12 12 12 13 13
15 15 15 15 15 15 14 14 14 13 13 13 13 12 12 12 12 12 12 12 13 13 13 13 12 12 12 12 12 13 12 12 13
16 15 15 15 14 14 14 14 13 13 13 13 13 13 12 12 12 12 12 12 12 12 12 12 12 12 13 12 12 12 12 13 13
15 15 15 14 14 14 13 13 13 13 13 13 12 12 12 12 12 12 11 12 12 12 12 12 12 12 12 12 12 12 12 12 12
15 15 14 14 14 13 13 13 13 12 12 13 12 12 12 12 12 12 11 11 10 11 11 11 10 10 11 11 11 11 11 11 11
14 14 14 14 13 13 13 13 13 12 12 12 12 12 12 12 12 12 11 11 10 11 11 10 10 10 10 10 10 10 11 11 11
14 14 14 14 13 13 13 13 12 12 12 12 12 13 12 12 12 11 11 10 9 10 10 10 10 9 9 9 10 10 10 10 10
14 14 14 14 13 13 13 13 12 12 12 12 13 13 12 12 12 11 11 10 9 10 10 10 9 9 9 9 9 9 10 10 10
14 14 13 13 13 13 13 12 12 12 12 12 12 12 12 12 12 11 11 10 10 9 9 9 9 9 9 9 9 9 9 9 9
14 13 13 13 13 12 12 12 12 12 12 12 12 12 12 12 11 11 11 10 10 9 9 9 9 9 8 9 9 9 9 9 9
14 13 13 13 13 12 12 12 12 12 11 12 12 12 12 12 11 11 10 10 9 9 8 8 9 8 8 8 8 8 8 9 9
14 14 13 13 12 12 12 12 12 11 11 12 12 12 12 12 11 11 10 9 9 9 8 8 8 8 8 7 7 7 7 7 8
14 14 13 12 12 12 12 12 12 11 11 12 12 11 12 11 11 10 9 9 9 8 8 8 7 7 7 7 7 6 6 6 6
14 13 13 13 12 12 12 11 12 11 11 12 11 11 11 11 10 10 9 9 8 8 7 7 7 7 6 6 6 6 6 6 5
14 14 13 13 13 12 12 12 12 11 12 11 11 11 11 10 10 10 9 8 8 7 7 7 7 7 6 6 5 5 5 5 4
16 14 14 14 13 12 12 12 12 12 12 12 11 11 10 10 10 10 9 8 8 7 7 6 6 6 5 5 5 5 5 4 3
16 16 14 14 13 13 12 12 12 12 12 12 11 11 11 10 10 9 8 8 7 7 6 5 5 5 5 5 5 4 4 3 2
16 16 16 14 13 13 12 12 12 12 11 11 11 11 11 10 9 9 8 8 7 6 5 5 5 5 5 4 4 3 3 2 0
16 16 16 14 13 13 12 11 12 12 11 11 11 11 10 10 9 9 8 7 6 6 5 5 5 4 4 4 3 3 2 2 2

GFSFLT1_850_temp_048.txt.gz
Temp
16 15 13 14 14 14 14 14 14 14 14 14 13 13 12 12 12 12 12 13 13 13 13 13 13 13 13 12 12 12 12 13 12
16 16 15 14 14 14 14 13 14 14 13 13 13 13 12 12 12 12 12 12 13 13 13 13 13 13 13 12 12 13 13 12 13
16 16 16 15 14 14 14 14 14 13 13 13 13 12 12 12 12 12 12 12 13 13 13 12 12 12 12 12 13 13 12 12 12
16 16 16 15 15 14 14 13 13 13 13 13 13 12 12 12 12 12 12 12 12 12 12 12 12 13 13 13 13 13 13 13 12
15 15 15 15 14 14 14 13 13 13 13 13 12 12 12 12 12 12 11 12 12 12 12 12 12 12 12 12 12 12 12 13 13
15 15 15 14 14 14 13 13 13 13 13 13 12 12 12 12 12 12 11 11 11 12 11 11 11 12 12 11 11 11 11 11 12
15 15 14 14 13 13 13 13 13 13 13 12 12 12 12 12 12 12 11 10 10 11 11 11 11 11 11 11 11 11 11 11 11
14 14 14 14 13 13 13 12 12 12 12 12 12 12 12 12 12 12 11 10 10 11 11 11 10 10 10 11 11 10 10 10 10
14 14 14 13 13 13 13 12 12 12 12 12 12 12 12 12 12 11 11 10 10 10 10 10 10 10 10 10 10 10 10 10 10
14 14 13 13 13 13 12 12 12 12 12 12 12 12 12 12 12 11 11 10 10 9 9 9 9 9 9 9 9 9 10 10 10
14 14 14 13 13 12 12 12 12 11 12 12 12 12 12 12 12 11 11 10 10 9 9 9 9 8 8 9 9 9 9 9 9
14 14 14 13 13 12 12 12 12 11 11 11 12 12 12 12 11 11 10 10 9 9 9 9 9 8 8 8 8 8 8 8 9
14 14 13 13 13 12 12 12 12 11 11 11 12 12 12 11 11 11 10 10 9 9 8 8 8 8 8 8 7 7 7 7 7
14 14 13 12 12 12 12 12 12 11 11 11 12 12 11 11 11 11 10 10 9 9 8 8 8 8 7 7 7 7 7 7 7
14 14 13 12 12 12 12 12 12 11 11 11 11 12 11 11 11 10 10 10 9 9 8 8 8 7 7 7 7 6 6 6 6
14 14 14 13 13 13 12 12 11 11 11 11 11 11 11 11 11 10 10 9 9 8 8 8 7 7 7 7 6 6 6 6 6
14 15 14 13 13 12 12 12 12 11 11 11 11 11 10 11 10 10 10 9 9 8 8 7 7 7 7 6 6 6 6 5 5
16 15 15 14 13 13 13 12 12 12 11 11 11 11 11 11 10 9 9 9 8 8 8 7 7 6 6 6 5 5 5 5 4
16 15 15 15 14 13 12 13 12 11 10 11 11 11 11 11 10 9 9 9 8 7 7 7 6 6 5 5 5 4 4 3 3
16 15 15 15 15 14 12 12 14 12 11 11 11 11 11 10 10 10 10 9 8 7 6 6 6 5 5 4 4 3 3 3 3

GFSFLT1_850_temp_051.txt.gz
Temp
15 13 13 14 14 14 14 14 14 15 15 14 14 13 13 13 13 12 13 13 13 13 13 13 13 13 13 13 13 13 13 13 13
15 14 14 15 14 14 14 14 14 15 14 13 13 13 13 12 12 12 13 12 12 13 13 12 13 13 13 12 12 13 13 13 12
15 15 15 14 14 14 14 14 14 14 14 13 13 13 12 12 12 13 12 12 12 13 13 13 13 13 13 13 13 13 13 12 12
15 15 15 15 15 14 14 14 14 14 13 13 13 13 13 12 12 12 12 12 12 12 12 13 13 13 13 13 13 13 13 13 12
15 15 15 15 15 14 14 14 14 13 13 13 13 13 12 12 12 12 12 12 12 12 12 12 13 13 13 13 13 13 13 13 12
15 15 14 14 14 14 13 13 13 13 13 13 13 12 12 12 12 12 11 11 11 11 11 11 12 12 12 12 12 12 12 12 12
15 14 14 14 14 13 13 13 13 13 13 13 12 12 12 12 12 12 11 10 11 11 11 11 11 11 11 11 11 11 11 11 12
15 15 14 14 14 13 13 13 13 13 12 12 12 12 12 12 12 11 11 10 11 11 11 11 11 10 10 10 10 10 11 11 11
14 14 14 14 14 13 13 13 13 12 12 12 12 12 13 12 12 12 11 10 10 10 11 10 10 10 10 10 10 10 10 10 10
14 14 14 13 13 13 13 13 12 12 12 12 12 12 12 12 12 11 11 10 10 10 10 10 10 10 10 10 10 10 10 10 10
14 14 13 13 13 13 13 13 12 12 12 12 12 12 12 12 12 11 11 10 10 10 10 10 9 9 9 9 9 9 9 9 10
15 14 14 13 13 13 12 12 12 12 12 12 11 12 12 12 12 11 11 10 10 10 9 9 9 9 8 8 8 8 9 9 9
15 14 14 14 13 13 12 12 12 12 11 11 11 11 12 12 11 11 11 10 10 9 9 9 9 9 9 8 8 8 8 8 8
15 14 14 13 13 12 12 12 12 12 11 11 11 11 12 11 11 11 11 10 10 9 9 9 9 9 8 8 8 8 8 7 7
14 14 14 13 13 12 12 12 11 11 11 11 11 11 11 11 11 11 10 10 10 9 9 9 9 8 8 8 8 7 7 7 6
15 14 14 13 13 13 12 12 11 11 11 11 10 11 11 11 11 10 10 10 9 9 9 8 8 8 7 7 7 7 7 6 6
16 15 14 14 13 13 12 12 12 11 11 11 10 10 10 11 11 10 10 10 9 9 9 8 8 8 7 7 7 7 6 6 6
16 16 16 15 14 13 13 12 12 11 11 11 11 10 11 11 11 11 10 10 9 9 8 8 8 7 7 6 6 6 6 5 5
16 16 16 16 15 14 13 13 12 12 11 11 11 11 10 12 11 10 10 9 9 9 9 9 8 7 6 6 6 5 5 4 4
16 16 16 15 15 15 14 13 12 12 11 11 12 11 11 10 9 11 10 10 9 8 8 7 7 6 6 5 5 4 4 3 3

GFSFLT1_850_temp_054.txt.gz
Temp
14 14 14 14 14 14 14 14 14 15 14 14 13 13 13 13 12 12 13 13 13 13 13 13 13 13 13 13 13 13 13 13 13
15 14 14 14 14 14 14 14 15 15 14 14 13 13 13 12 12 12 13 13 13 13 13 13 13 13 13 13 13 13 13 12 13
16 15 14 14 14 14 14 14 15 14 14 13 13 13 13 12 12 12 12 12 12 12 13 13 13 13 13 13 13 13 13 13 12
16 15 14 14 14 14 14 14 14 14 13 13 13 13 13 12 12 12 12 12 12 11 12 13 13 13 13 13 13 13 13 13 13
16 16 15 14 14 14 14 14 14 13 13 13 13 13 12 11 11 11 11 12 12 11 11 12 12 12 12 12 12 13 13 12 12
15 15 15 14 14 14 13 14 13 13 13 13 13 12 11 11 11 11 12 12 12 12 12 12 12 12 12 12 12 12 12 12 12
12 14 14 14 12 12 12 13 13 13 13 13 13 12 12 11 11 11 11 12 12 11 11 12 12 12 12 11 12 11 12 12 12
14 13 14 12 12 11 12 13 13 13 13 13 12 12 12 11 11 11 11 11 11 11 11 11 11 11 11 11 11 11 11 11 11
13 12 12 12 11 12 11 11 13 13 13 12 12 12 12 12 12 10 11 10 11 11 11 11 11 11 11 11 11 11 11 11 11
12 12 12 12 12 12 11 12 13 13 12 12 12 12 12 12 12 10 11 10 10 10 11 11 10 10 10 10 10 10 10 10 10
12 12 12 12 12 11 11 13 13 12 12 12 12 12 12 12 12 10 9 10 10 10 10 9 10 10 10 10 10 10 10 10 10
13 13 12 12 11 12 12 12 13 12 12 12 12 12 12 12 12 11 9 10 10 10 10 9 9 9 10 9 9 9 9 10 10
14 13 12 12 11 11 12 13 13 12 12 12 12 11 11 12 11 11 11 10 8 10 10 10 9 9 9 9 9 9 9 9 8
15 14 12 12 11 11 12 13 12 12 12 12 11 11 11 12 11 11 11 11 10 9 10 9 9 9 9 8 8 8 8 8 7
15 14 14 12 11 12 12 12 12 12 11 11 11 11 11 11 11 11 11 11 10 10 10 9 9 9 9 9 8 8 8 8 7
16 16 14 14 12 12 11 13 12 12 11 11 11 11 11 11 11 11 11 11 10 10 9 9 9 9 8 8 8 8 8 7 7
17 17 16 15 14 12 12 12 12 11 11 11 9 9 10 10 11 11 11 10 10 10 10 9 9 8 8 8 8 7 7 7 6
17 17 16 16 15 14 14 13 13 12 12 11 11 10 11 10 11 11 11 10 10 9 9 9 8 8 7 7 7 7 7 6 6
17 17 16 16 15 16 15 14 13 12 12 11 11 11 12 11 10 11 11 11 10 9 9 8 8 7 7 7 6 6 6 6 5
16 16 15 16 16 15 15 15 14 13 12 12 12 11 11 11 11 10 11 10 10 9 8 8 7 7 6 6 6 6 6 5 4

GFSFLT1_850_temp_057.txt.gz
Temp
14 14 15 15 15 15 15 14 15 15 15 14 14 13 13 13 13 13 13 14 14 13 13 13 13 13 13 13 13 13 13 13 13
15 15 14 15 15 15 14 14 15 15 14 14 13 13 13 13 13 13 13 13 13 13 13 13 13 12 13 13 13 13 13 13 12
16 15 14 14 14 14 14 15 15 14 14 14 13 13 13 13 13 12 12 13 13 13 13 13 13 13 13 13 13 13 13 13 13
16 16 14 14 14 14 14 15 15 14 14 14 13 13 13 13 13 13 12 12 13 13 14 14 13 13 13 13 13 13 13 12 12
16 16 15 15 15 14 14 15 14 14 14 13 13 13 13 13 12 12 12 12 12 12 13 13 13 13 13 13 13 13 13 12 13
16 16 16 15 15 15 14 14 14 14 14 13 13 13 12 12 12 12 12 12 12 12 12 12 12 12 12 12 12 12 12 12 12
14 15 16 15 15 14 13 14 13 13 13 13 13 12 12 12 12 12 12 12 12 12 12 12 12 12 12 12 12 12 12 12 12
14 15 15 15 14 13 13 13 13 13 12 12 12 12 12 12 11 11 12 12 12 11 11 11 11 11 11 11 11 11 11 11 12
13 13 13 12 12 12 12 12 12 12 13 12 12 12 12 12 11 11 12 12 12 11 11 11 11 11 11 11 11 11 11 11 11
13 13 13 13 13 13 13 13 12 12 12 12 12 11 12 12 11 11 11 12 11 11 11 11 11 11 11 11 11 11 11 11 11
13 13 13 13 13 13 13 13 12 12 12 12 12 11 11 11 11 11 11 12 11 11 11 11 11 10 11 11 11 10 10 10 10
13 13 13 13 13 13 13 12 12 12 11 11 12 12 11 12 11 11 9 11 11 10 10 10 10 10 10 10 10 10 10 10 10
14 13 13 13 13 12 12 12 12 11 11 12 12 12 12 11 11 11 10 9 10 11 11 10 10 10 10 10 10 10 10 10 10
13 13 13 13 13 12 12 12 11 11 11 11 11 12 12 11 11 11 11 10 9 10 11 11 10 10 10 9 9 9 9 10 9
13 13 13 13 13 13 12 12 11 11 11 11 11 11 11 11 11 11 11 11 11 10 11 11 11 10 10 9 9 8 9 9 8
13 14 14 12 12 12 12 11 11 11 11 11 10 10 11 11 11 11 11 11 12 11 10 11 10 10 10 9 9 8 8 8 8
14 14 15 14 13 13 12 11 11 11 11 11 10 10 9 11 11 11 11 11 11 11 11 11 10 10 10 10 9 9 8 8 7
13 13 13 13 13 13 13 12 11 11 11 12 12 11 11 12 11 11 11 11 11 11 10 11 10 10 9 9 9 8 8 7 7
16 13 13 13 12 12 13 12 12 10 10 11 12 12 12 11 10 10 10 10 9 9 9 10 10 10 9 9 9 8 7 7 7
15 15 14 13 12 13 12 12 12 11 10 12 12 11 11 12 12 12 11 10 9 9 8 8 9 8 8 8 7 7 6 6 6

GFSFLT1_850_temp_060.txt.gz
Temp
15 15 15 15 15 15 15 14 15 15 14 14 14 13 13 13 14 14 13 13 13 13 13 13 13 13 13 13 14 13 13 13 13
15 15 15 15 14 14 14 14 15 15 14 14 14 13 13 13 14 14 13 13 13 13 13 13 13 13 13 13 13 13 13 13 13
16 15 15 15 14 14 14 15 15 15 14 14 14 13 13 13 13 13 13 13 13 13 14 14 13 13 13 13 13 13 13 13 13
17 16 15 15 15 15 15 15 15 15 14 14 14 13 13 13 13 12 13 13 13 14 14 13 13 13 13 14 13 13 13 12 12
17 16 16 16 15 15 15 15 15 15 14 14 14 13 13 12 13 12 12 12 13 13 14 13 13 13 13 13 13 13 13 13 13
17 16 16 16 15 15 16 15 15 15 14 14 14 13 12 12 12 12 12 12 13 13 13 13 13 13 13 13 13 13 13 13 13
17 17 16 16 16 16 16 16 15 15 14 14 14 13 12 12 12 12 12 13 13 13 13 13 12 12 12 12 12 12 12 12 12
15 16 16 16 16 16 16 15 15 14 15 14 13 12 12 12 12 12 13 13 12 12 12 12 12 12 12 12 12 12 12 12 12
15 16 16 16 16 16 15 14 14 14 12 12 12 12 13 12 12 12 13 13 13 12 12 12 12 12 12 12 12 12 12 12 12
15 16 15 15 15 14 14 13 13 13 13 13 12 12 13 12 12 12 12 13 13 12 12 12 12 12 12 12 12 11 12 12 11
14 14 14 14 13 13 13 13 12 12 13 12 13 12 12 12 12 12 12 13 13 12 12 12 12 12 11 12 11 11 11 11 11
14 14 13 13 13 13 13 13 13 12 12 12 12 12 12 12 12 13 12 13 13 13 12 12 12 11 12 12 12 12 12 11 11
14 14 14 13 13 13 13 13 12 12 12 12 12 12 12 12 12 11 12 13 13 13 12 12 12 12 11 12 12 12 12 12 12
14 14 14 14 13 13 13 13 12 12 12 12 12 12 12 12 12 11 11 12 13 13 12 12 12 12 11 11 12 12 12 12 11
14 14 14 14 13 13 13 13 12 12 12 11 11 11 11 12 11 11 12 11 12 13 12 12 12 12 12 12 11 11 11 11 11
16 15 14 14 13 13 13 13 12 12 11 11 11 11 11 11 11 11 11 11 11 11 12 12 12 11 11 11 11 11 10 10 10
14 15 15 15 13 13 12 13 13 12 11 11 11 10 10 11 11 11 11 11 12 11 11 12 11 10 10 10 10 11 10 9 9
14 14 13 14 13 12 12 12 14 13 11 11 11 10 10 12 12 11 11 11 11 11 11 11 11 10 10 9 10 10 9 8 8
14 14 13 13 13 12 12 12 12 12 12 11 11 11 11 11 11 11 11 10 10 10 10 9 9 8 9 9 8 9 9 8 8
13 13 13 12 12 12 12 12 11 12 11 11 12 11 11 10 12 12 12 11 10 9 9 8 8 8 7 7 8 8 8 7 7

GFSFLT1_850_temp_063.txt.gz
Temp
15 16 15 15 15 15 14 15 16 15 15 14 13 13 12 13 13 13 13 14 13 13 13 13 13 13 13 14 13 13 13 14 13
15 15 15 15 14 14 14 15 16 15 15 14 13 12 13 13 13 13 13 13 13 13 13 14 13 13 13 13 13 13 13 13 13
15 15 15 14 14 14 14 15 16 15 15 14 13 13 12 13 13 13 13 13 13 14 14 14 14 13 13 13 13 13 13 12 12
16 16 15 15 15 14 15 16 16 15 15 14 13 13 13 13 13 13 13 13 14 14 14 14 14 14 14 14 13 13 13 12 12
17 17 16 16 16 16 16 16 15 15 15 15 14 13 13 13 13 13 13 13 14 14 14 14 14 14 14 13 13 13 13 13 12
17 17 17 17 16 16 16 16 16 15 15 15 14 13 13 13 13 13 13 13 14 14 14 14 13 13 13 13 13 13 13 13 13
18 17 17 16 16 16 17 16 16 15 15 15 14 13 13 12 12 13 13 13 14 14 14 13 13 13 13 13 13 13 12 12 12
17 18 17 16 16 17 17 16 16 15 15 15 14 13 13 12 13 13 13 13 14 14 14 14 13 13 13 13 13 13 13 12 12
16 16 16 17 17 16 16 15 15 15 15 15 13 13 13 13 13 13 13 13 13 14 14 13 13 13 13 13 13 13 13 12 12
15 15 16 16 16 16 16 15 14 14 14 14 13 14 13 13 13 13 13 13 13 13 13 13 13 13 13 13 13 13 12 12 12
15 15 16 16 15 15 15 14 14 13 13 13 13 12 13 13 13 13 13 13 13 13 13 13 13 13 13 12 12 12 13 13 12
14 15 15 15 15 14 13 13 13 12 12 13 13 13 12 12 13 13 13 13 13 12 13 13 13 13 13 13 12 12 12 12 12
15 15 15 15 14 14 13 13 13 13 12 13 13 13 12 12 12 13 13 13 13 12 12 13 13 13 13 13 12 12 12 12 11
15 15 15 14 14 13 13 13 13 13 13 12 12 12 12 12 12 12 13 13 12 12 12 12 12 12 12 12 12 12 12 12 12
15 15 15 15 14 14 13 13 13 13 13 12 12 12 12 12 12 11 12 12 12 12 12 12 12 12 12 11 11 11 11 11 11
15 15 15 15 14 14 13 13 13 13 13 12 11 11 11 11 11 11 11 11 12 12 12 12 11 11 11 10 10 10 10 10 10
15 14 14 14 14 14 13 13 13 13 12 12 11 11 11 11 11 11 11 11 11 11 12 11 11 11 10 10 10 10 9 9 8
15 14 14 14 14 14 13 13 12 13 12 12 11 10 10 12 12 12 12 11 11 10 11 11 11 10 10 9 9 9 8 8 7
14 14 14 13 13 13 13 13 12 12 12 11 11 11 12 12 12 13 13 11 10 10 9 9 9 9 9 9 8 8 8 7 6
13 13 13 13 13 12 12 12 12 12 12 12 11 11 10 10 10 11 12 11 11 10 8 8 8 7 7 7 7 7 6 6 5

GFSFLT1_850_temp_066.txt.gz
Temp
16 16 15 15 15 15 15 16 16 15 14 13 13 13 13 13 13 13 14 13 13 13 14 13 13 13 13 13 13 13 14 14 13
17 16 16 15 15 15 15 16 16 15 14 14 13 13 13 13 13 13 13 13 13 13 14 14 14 14 13 13 13 13 13 13 13
16 16 16 15 15 15 16 16 16 15 14 14 13 13 13 13 13 13 13 13 13 14 14 14 15 14 13 13 14 13 13 12 12
16 16 15 15 15 15 16 16 16 15 15 14 13 13 13 13 13 14 14 14 14 14 14 14 14 14 14 14 14 13 13 13 12
16 15 15 15 15 15 16 16 16 15 15 15 14 14 14 13 13 13 14 14 14 15 15 15 14 14 14 14 14 13 13 13 13
17 16 15 15 15 15 15 15 16 16 15 15 14 14 14 15 14 13 13 14 14 14 14 14 14 14 14 14 14 13 13 13 13
17 17 16 16 16 15 15 15 15 15 15 15 14 14 14 15 14 14 13 13 14 14 14 14 14 14 14 13 13 13 13 13 13
17 16 16 16 17 17 16 16 15 15 15 14 14 14 14 14 14 14 13 13 14 14 14 14 14 13 13 13 13 13 13 13 13
16 16 16 16 16 16 16 16 15 15 15 14 14 14 14 13 13 14 14 13 13 14 14 14 13 13 13 13 12 12 13 12 12
16 15 15 16 16 16 16 15 15 15 15 14 14 14 14 13 13 13 13 13 13 13 14 14 14 13 13 13 12 12 12 12 12
15 15 15 15 16 16 15 15 15 14 14 14 14 14 13 13 13 13 13 13 13 13 13 13 13 13 13 13 12 12 12 12 12
15 15 14 15 15 15 15 14 14 13 13 13 13 13 13 13 13 13 13 13 13 13 13 13 13 13 13 13 12 12 12 12 12
15 15 15 15 14 14 14 14 14 14 13 13 13 13 13 13 13 13 13 12 12 12 13 13 13 12 12 12 12 12 12 11 12
15 15 15 15 14 14 14 14 13 13 13 13 12 12 12 12 12 13 12 12 12 12 12 12 12 12 12 10 9 11 11 11 11
14 15 15 15 14 14 14 14 13 13 13 13 12 12 12 12 12 12 12 12 12 12 12 12 12 12 11 10 8 8 11 10 10
15 15 15 15 15 15 14 14 13 13 13 12 12 12 12 12 12 11 12 12 12 12 11 11 11 11 11 10 9 7 8 10 9
14 14 14 14 14 14 14 13 13 13 13 12 12 12 12 11 12 12 12 12 12 11 11 11 10 10 10 10 9 8 7 6 7
14 14 14 14 14 14 13 13 12 12 13 13 11 11 11 12 13 13 13 12 11 11 11 11 10 9 9 9 8 7 7 6 5
14 14 14 14 13 13 13 12 12 12 12 12 12 11 11 11 11 12 13 12 11 10 10 10 10 9 8 8 8 7 6 5 5
13 13 13 13 13 13 12 12 12 12 11 11 11 12 11 11 10 10 10 11 11 11 10 10 9 9 8 6 6 7 5 5 4

GFSFLT1_850_temp_069.txt.gz
Temp
16 15 15 15 15 16 16 16 16 15 15 14 14 14 14 14 14 14 14 14 13 13 14 14 13 14 14 13 13 14 14 13 13
16 16 15 15 15 16 16 16 15 15 15 15 14 14 14 14 14 14 14 13 14 14 14 14 14 13 13 13 13 13 13 13 13
16 15 15 15 15 15 16 16 15 15 15 14 14 14 14 14 13 13 13 13 13 13 14 15 15 14 13 13 13 13 13 13 12
16 15 15 15 15 15 15 15 15 15 14 14 14 14 14 14 14 14 14 14 14 14 14 14 14 14 13 13 13 11 12 11 12
16 16 15 15 15 15 15 15 15 14 14 14 14 14 13 14 14 14 14 14 15 14 14 14 14 14 14 13 13 13 12 12 12
17 17 16 16 16 15 15 15 14 14 14 13 13 13 13 13 14 14 14 14 14 14 14 14 14 14 14 13 13 13 13 12 12
17 17 17 16 16 15 15 15 15 15 14 14 14 13 13 14 13 13 13 14 14 14 14 14 14 14 14 14 13 13 13 13 13
18 17 17 17 16 16 15 15 15 15 15 15 15 14 14 14 14 14 13 13 13 14 14 14 14 14 14 13 13 13 13 12 12
17 17 17 16 16 16 16 15 15 15 15 15 15 14 14 14 13 14 13 13 13 13 13 14 14 13 13 13 13 13 12 12 12
16 16 16 16 16 16 15 15 15 15 15 15 14 14 14 14 14 13 13 13 12 12 13 13 13 13 13 13 13 12 12 12 12
16 16 16 15 15 15 15 15 15 14 14 14 14 14 14 14 13 13 13 12 12 12 12 13 13 13 13 13 13 12 12 12 12
15 15 15 15 14 14 14 14 14 14 14 14 13 13 13 13 13 13 13 12 12 12 12 12 12 12 13 13 13 12 12 12 11
15 15 15 15 14 14 14 14 14 14 14 13 13 13 13 13 12 13 13 12 12 12 12 12 12 12 12 12 11 12 11 11 11
15 15 15 14 14 14 14 14 14 14 14 13 13 13 12 12 12 12 12 12 12 12 12 12 11 11 11 11 9 9 11 11 10
15 15 15 14 14 14 14 14 13 13 13 13 13 12 12 12 12 12 12 12 12 12 12 11 11 11 11 10 9 7 8 10 10
14 15 14 14 14 14 14 13 13 13 13 12 12 12 13 12 12 12 12 12 12 11 11 11 11 11 11 10 9 8 7 6 8
14 14 14 14 14 14 14 14 13 13 12 12 12 12 12 12 12 12 12 12 12 11 11 11 10 10 10 10 10 9 7 6 5
14 14 14 14 14 14 14 13 13 12 12 12 11 11 12 12 12 12 12 13 13 12 12 11 10 10 9 9 8 8 7 6 6
15 14 14 14 14 13 13 13 12 12 12 12 11 11 11 11 10 10 11 11 11 12 11 11 10 9 8 7 8 7 6 6 5
14 14 14 13 13 13 12 12 12 12 11 11 11 10 10 10 10 9 9 10 10 10 10 10 9 9 8 7 6 6 5 4 4

GFSFLT1_850_temp_072.txt.gz
Temp
16 15 15 15 15 16 16 16 16 16 15 15 14 14 14 14 14 14 14 13 14 14 13 14 14 14 14 14 13 14 14 13 13
16 15 15 15 15 16 16 16 15 15 15 15 14 14 14 14 14 14 14 13 13 14 14 14 14 13 13 13 13 13 13 13 13
15 15 15 15 15 15 16 15 15 15 15 14 14 14 13 13 13 13 13 13 13 14 14 15 15 14 13 13 13 13 13 13 12
15 15 15 15 15 15 15 15 15 15 14 14 13 13 13 13 13 13 13 13 14 14 14 15 15 15 14 13 13 11 12 11 11
16 16 16 15 15 15 16 16 15 15 14 13 13 13 13 13 13 13 13 13 14 14 14 14 14 14 14 14 14 13 11 10 10
16 16 15 15 15 15 16 16 16 15 15 14 14 14 13 13 13 13 13 13 13 13 14 14 14 14 14 14 14 13 13 13 12
16 16 16 16 16 16 16 16 16 15 15 14 14 14 14 14 13 13 13 13 13 13 13 14 14 14 14 14 13 13 13 13 13
17 17 16 16 16 16 16 16 16 15 15 14 14 14 13 14 14 13 13 13 13 13 13 13 13 13 13 13 13 13 13 13 13
17 17 16 16 16 16 16 16 16 15 15 14 14 14 14 13 13 13 13 13 12 13 13 13 13 13 13 13 13 13 13 12 12
16 16 16 16 16 16 16 15 15 15 15 14 14 14 14 13 13 13 13 13 13 12 12 12 13 13 13 13 12 12 12 12 12
16 16 15 15 15 15 15 15 15 15 14 14 14 14 13 13 13 13 13 13 13 12 12 12 12 12 12 12 12 12 12 12 12
15 15 15 15 15 14 14 14 14 14 14 14 14 13 13 13 13 13 13 12 12 12 12 12 12 12 12 11 11 12 12 12 12
15 15 15 15 14 14 14 14 14 14 14 14 14 13 13 13 13 13 12 12 12 12 12 12 12 11 11 11 11 11 12 11 11
15 15 15 14 14 14 14 14 13 13 13 13 13 13 13 12 12 12 12 12 12 12 11 11 11 11 11 10 10 8 8 10 10
15 15 15 14 14 14 14 14 13 13 13 13 13 13 12 12 12 12 11 11 12 12 11 11 11 11 11 10 10 8 8 8 8
14 14 14 14 14 14 14 14 13 13 13 12 12 12 12 12 12 12 12 12 12 12 12 11 11 10 10 10 10 9 8 7 7
14 14 14 14 14 14 14 13 13 13 12 12 12 11 12 12 12 12 12 12 12 12 12 11 11 10 10 9 9 9 8 7 7
14 14 14 14 14 14 13 13 13 13 12 12 12 11 12 12 11 11 11 11 11 11 12 11 11 11 10 9 9 8 7 7 7
14 14 14 14 14 14 13 13 12 12 12 11 12 11 10 11 10 10 10 10 10 10 10 10 10 10 10 10 9 8 7 6 7
13 13 13 13 13 13 12 12 12 12 11 11 11 11 10 10 9 10 9 9 9 9 9 9 10 9 9 9 9 8 7 7 6

GFSFLT1_850_temp_075.txt.gz
Temp
15 15 15 15 16 17 16 16 16 15 15 14 14 14 14 14 14 14 14 13 13 14 14 14 14 14 14 14 14 14 13 13 13
15 15 15 15 16 16 16 16 15 15 15 15 14 14 14 14 14 13 13 13 13 13 14 14 13 13 13 13 13 13 13 13 13
15 15 15 15 15 16 15 15 15 15 15 15 14 14 14 13 13 13 13 13 13 13 14 14 14 14 13 13 13 13 13 13 12
14 15 15 15 15 16 16 15 15 15 15 14 14 14 14 14 13 13 13 13 14 14 14 14 14 14 14 13 13 13 12 12 12
16 16 15 16 16 15 15 15 15 15 15 15 15 15 14 14 14 13 13 14 14 14 14 14 14 14 14 14 13 13 13 12 10
16 16 16 16 16 15 15 15 16 15 15 15 15 15 14 14 14 14 13 13 13 13 13 13 14 14 14 14 14 14 13 13 13
16 16 16 16 16 16 16 15 15 16 15 15 15 15 14 14 13 13 13 13 13 13 13 13 13 13 13 13 13 13 13 13 13
17 17 17 16 16 16 16 15 15 15 15 15 15 15 14 14 13 13 13 13 12 13 13 13 13 13 13 13 13 13 12 12 12
16 16 16 16 16 16 16 15 15 15 15 15 15 14 14 14 13 13 13 13 12 12 13 13 13 13 13 13 13 13 13 13 12
16 16 16 16 16 15 15 15 15 15 15 15 15 14 14 14 13 13 13 13 12 12 12 12 12 12 12 12 13 13 13 13 12
15 15 15 15 15 14 14 14 15 15 15 15 14 14 14 14 13 13 13 12 12 12 12 12 12 12 12 12 12 12 12 12 12
15 15 15 14 14 14 14 14 14 14 14 14 14 14 13 13 13 13 13 12 12 12 12 12 12 12 11 11 10 10 11 11 11
15 15 14 14 14 14 14 14 14 14 14 14 14 13 13 13 13 13 12 12 12 12 12 12 11 11 11 11 10 9 9 11 11
14 14 14 14 14 14 14 14 14 14 14 14 13 13 13 13 12 12 12 12 12 12 12 11 11 11 11 10 9 8 8 8 8
14 14 14 14 14 14 14 14 14 14 14 13 13 13 13 12 12 12 12 12 12 12 12 11 11 11 11 10 10 9 9 9 8
14 14 14 14 14 14 14 14 14 14 14 13 14 13 13 12 12 12 12 12 12 12 12 11 11 11 10 10 10 10 9 9 8
15 15 15 14 14 14 14 14 13 13 13 12 12 11 12 13 13 12 12 12 12 11 11 11 11 11 11 10 10 10 9 9 8
14 14 15 15 14 14 14 13 13 13 12 12 11 11 12 12 12 11 11 11 11 11 11 11 11 10 11 11 10 9 9 8 7
14 14 14 14 14 14 14 13 12 12 12 12 12 11 11 10 10 10 10 10 10 10 10 10 10 10 10 9 9 9 8 8 8
13 13 13 13 13 13 13 13 12 11 11 11 11 11 10 10 9 9 9 9 9 9 8 9 9 9 9 9 9 8 8 7 7

GFSFLT1_850_temp_078.txt.gz
Temp
15 15 15 16 16 16 16 16 15 15 15 15 14 14 14 14 13 13 13 13 14 14 14 13 13 13 14 14 14 13 13 13 13
15 15 15 16 16 16 16 16 16 15 15 15 15 14 14 13 13 13 13 13 13 14 14 14 14 13 13 13 13 13 13 13 13
15 15 15 15 16 16 16 16 16 15 15 15 15 15 14 13 13 12 12 14 14 14 14 14 14 14 13 13 13 13 13 13 12
14 15 15 15 15 16 16 16 16 15 15 15 15 15 15 13 14 13 12 14 14 14 14 14 14 14 14 13 13 13 12 12 12
16 15 15 16 16 16 16 16 16 15 15 15 15 15 15 13 14 13 13 14 14 14 14 14 14 14 14 14 13 13 13 13 12
16 16 15 15 15 15 16 16 16 15 15 15 15 15 13 13 13 13 14 14 14 14 14 14 14 14 14 14 14 14 13 13 13
16 16 16 16 16 15 15 15 15 15 15 15 15 14 14 14 14 13 14 14 13 14 13 13 13 14 14 14 14 14 13 13 13
16 16 16 16 15 15 15 15 14 15 15 15 14 15 15 13 14 13 14 14 13 13 13 13 13 13 13 13 13 13 13 13 12
16 16 16 16 16 15 15 14 15 15 15 15 14 14 14 14 14 13 14 14 13 13 12 13 13 13 13 13 13 13 12 12 12
16 15 15 16 15 15 14 15 14 14 14 15 15 14 14 14 14 14 14 13 13 13 12 11 12 12 12 12 12 12 12 12 12
15 15 15 15 15 15 14 14 14 14 14 14 14 14 14 14 14 13 13 13 13 12 12 12 11 11 11 12 12 12 12 12 12
15 15 15 15 15 14 14 14 14 14 14 14 14 13 13 13 13 13 13 13 13 12 12 12 12 11 10 10 10 9 11 11 11
15 15 14 14 14 14 14 14 14 14 14 14 13 14 14 14 13 13 13 13 13 12 12 12 12 11 11 10 9 9 9 9 10
15 15 14 14 14 14 14 14 14 14 13 14 14 13 14 14 13 13 12 13 13 12 12 12 12 11 11 11 10 10 9 10 9
15 15 14 14 14 14 14 14 14 14 14 13 14 14 13 14 13 13 12 12 12 12 12 12 12 12 11 11 10 10 10 9 9
15 14 14 14 14 14 14 14 14 14 13 13 13 12 12 13 12 13 12 12 12 12 12 12 12 11 12 11 11 10 10 10 9
15 14 14 14 14 14 14 14 13 13 13 13 12 12 13 13 12 12 12 12 12 12 11 11 11 11 11 11 11 10 10 9 9
15 15 14 14 14 14 14 14 13 12 13 13 12 11 13 12 12 12 12 11 11 11 11 11 10 10 10 10 10 10 10 9 9
14 14 14 14 14 14 14 14 13 12 12 12 12 12 10 10 11 10 10 10 10 10 10 9 9 9 9 9 9 9 9 9 9
14 13 13 13 13 13 13 13 13 10 11 11 11 11 11 10 9 9 9 10 10 9 9 8 9 9 9 8 8 8 8 9 9

GFSFLT1_850_temp_081.txt.gz
Temp
16 16 17 17 17 16 16 16 16 16 15 15 15 15 14 14 13 13 13 13 14 14 15 13 14 14 14 14 13 13 13 13 13
16 16 16 17 16 16 16 15 16 16 15 15 15 15 14 14 13 13 13 15 15 15 15 15 14 14 14 13 13 13 13 13 13
15 16 16 16 16 16 16 16 16 16 16 15 15 15 14 14 13 13 15 15 15 15 15 15 15 15 14 14 13 13 12 13 12
14 15 16 16 16 16 16 16 16 16 16 16 15 15 14 13 13 13 13 15 15 15 15 15 15 15 15 14 14 13 13 13 13
16 16 16 16 16 16 16 16 16 16 16 16 15 15 15 13 13 13 15 15 15 15 15 15 15 15 14 14 14 14 13 13 13
16 17 16 16 16 16 16 16 16 16 16 15 15 15 13 13 13 13 14 15 15 14 14 14 14 14 14 14 14 14 13 13 13
14 17 16 16 16 16 16 16 16 15 13 14 15 14 13 13 13 13 14 14 14 15 14 14 14 14 14 14 14 14 14 13 13
16 16 17 16 16 16 15 16 15 13 14 13 13 14 14 13 13 13 14 14 14 14 14 14 13 13 13 13 13 13 13 13 13
14 14 13 14 13 13 13 13 13 13 13 13 13 13 14 13 13 13 14 14 14 14 13 14 13 13 13 13 13 13 13 13 13
14 14 14 14 14 14 13 13 13 13 13 13 13 13 13 13 13 13 14 14 14 13 13 13 13 13 13 13 12 12 12 12 13
14 14 14 14 14 14 13 13 13 13 13 13 13 13 13 13 13 13 13 14 14 13 13 13 12 12 12 12 12 12 12 12 12
15 14 13 14 14 14 13 13 14 14 14 14 13 13 13 13 13 13 13 13 14 13 13 13 12 12 12 11 11 10 10 11 11
15 15 15 14 13 14 13 13 13 13 13 13 14 13 13 13 13 13 12 12 12 12 13 13 12 12 12 11 11 10 11 11 11
15 14 14 14 13 13 13 13 13 13 13 13 13 13 13 13 13 13 12 12 12 12 12 12 12 12 12 12 11 11 11 11 10
14 14 13 14 13 13 13 13 13 13 13 13 13 13 13 13 12 12 13 13 13 12 11 12 11 11 11 11 11 11 10 10 10
14 14 14 14 14 14 13 13 13 13 13 12 13 13 13 13 13 12 12 13 12 12 12 12 11 11 11 11 11 11 10 10 10
14 14 14 14 14 13 14 13 13 13 13 12 12 12 13 13 14 12 12 12 12 12 11 11 11 10 10 10 10 10 10 10 10
15 15 14 14 14 13 13 13 13 12 12 12 11 12 13 13 13 12 12 11 11 11 11 11 10 9 9 9 9 10 10 10 10
15 15 15 14 14 14 14 13 13 12 11 11 11 11 11 11 11 11 11 11 10 10 9 9 9 8 9 9 9 9 9 9 9
15 14 14 13 13 13 13 13 13 12 11 11 11 11 10 10 10 9 11 10 10 10 9 9 9 8 8 8 8 8 8 8 8

GFSFLT1_850_temp_084.txt.gz
Temp
16 17 17 17 17 17 17 16 16 16 15 15 15 14 13 13 14 14 14 15 15 15 15 15 14 14 14 14 14 13 13 13 13
16 17 17 17 17 17 17 16 16 16 16 15 15 14 13 14 13 13 15 15 15 15 16 16 15 15 14 14 13 13 13 13 13
16 16 17 17 17 17 17 16 16 16 16 15 15 14 14 13 14 14 15 15 15 15 15 16 16 16 15 14 14 14 13 13 13
16 16 17 17 17 17 17 17 16 16 16 16 15 15 14 14 14 14 15 15 15 15 15 15 15 15 15 15 15 14 14 14 14
17 17 17 17 17 17 17 17 16 16 16 16 16 15 14 14 13 14 14 15 15 15 15 15 15 15 15 15 15 15 14 14 14
18 18 17 17 17 17 17 17 16 16 16 16 16 15 15 13 13 13 14 15 15 15 15 15 14 14 14 14 14 14 14 14 14
18 17 17 17 17 16 16 16 16 16 16 16 15 15 14 13 13 13 14 14 14 15 14 14 14 14 14 14 14 14 14 14 14
16 17 17 17 17 16 16 16 15 16 15 14 15 14 14 15 13 13 14 14 14 14 15 14 14 14 14 14 13 13 13 14 14
16 16 16 17 17 16 15 15 14 14 15 15 15 14 14 15 14 13 14 14 14 14 14 14 14 14 13 13 13 13 13 13 13
14 14 14 15 15 15 15 15 15 14 14 14 14 14 14 14 13 13 14 14 14 14 14 13 13 13 13 13 13 13 13 13 13
14 14 15 15 15 15 15 14 14 14 14 14 14 14 14 14 14 14 14 14 14 14 13 13 13 13 12 12 12 12 12 12 12
15 15 14 15 15 15 14 14 14 14 14 14 14 14 14 14 14 13 13 13 14 13 13 13 12 12 12 12 11 12 12 11 11
15 15 15 14 14 14 15 14 14 14 14 14 14 13 13 14 14 13 13 12 12 12 12 12 12 11 11 11 11 11 11 12 11
15 15 15 14 14 14 14 14 13 13 13 13 13 13 13 14 13 13 13 12 12 12 12 12 12 11 11 11 11 11 11 11 10
14 14 14 13 14 13 13 13 13 13 13 13 13 13 13 13 13 13 13 13 13 13 12 12 12 11 11 11 11 11 11 11 10
14 14 14 13 13 13 13 13 13 13 13 12 13 12 13 13 13 13 13 12 12 12 12 12 11 10 10 10 10 10 10 11 11
14 14 14 14 13 13 13 13 12 12 12 12 12 12 13 13 13 13 12 12 12 12 11 11 10 10 9 9 10 10 10 10 11
14 14 14 14 14 13 13 13 12 12 12 11 11 11 12 13 13 13 12 12 11 11 10 9 8 8 9 9 9 9 9 9 9
14 14 14 14 14 14 14 13 13 11 11 11 11 11 11 11 11 12 11 11 11 11 9 9 9 9 9 8 8 8 9 8 9
15 14 14 14 13 13 13 13 12 12 11 10 10 10 10 11 10 10 11 11 11 10 9 10 9 8 8 8 7 8 8 8 8

GFSFLT1_850_temp_087.txt.gz
Temp
18 17 17 17 17 17 17 16 16 16 15 15 14 14 13 14 14 15 15 16 16 16 16 16 15 14 14 14 13 13 13 13 14
18 18 18 17 17 17 17 17 16 16 16 15 14 13 13 14 15 15 15 16 15 16 16 16 15 15 15 14 13 13 14 14 14
18 18 18 17 17 17 17 17 17 16 16 15 15 14 14 14 15 15 15 15 15 15 15 15 15 15 15 15 14 14 14 14 14
17 17 18 18 18 18 18 17 17 17 16 16 15 15 15 14 15 15 15 15 15 15 15 15 15 15 15 15 15 15 15 14 14
17 17 17 17 18 18 18 17 17 17 16 16 15 15 15 15 15 14 14 14 15 15 15 15 15 15 15 15 15 15 15 14 14
17 17 17 17 18 18 17 17 17 17 16 16 16 15 14 14 14 14 14 14 14 15 14 14 14 14 14 14 14 14 14 14 14
17 17 17 17 17 17 17 17 17 17 16 16 15 15 15 14 14 14 14 14 14 14 14 14 14 14 14 14 14 14 14 14 14
17 17 17 17 17 17 17 17 16 16 16 16 16 15 15 14 14 14 14 14 14 14 14 14 14 13 13 13 13 13 13 13 13
16 17 17 17 17 17 16 16 16 16 15 15 15 15 15 14 14 14 14 14 14 14 14 14 13 13 13 13 13 13 13 13 13
16 16 16 16 16 16 16 16 15 15 15 15 14 14 14 14 14 14 14 14 14 14 13 13 13 12 13 12 12 12 12 12 12
15 15 15 15 15 15 15 15 15 14 14 14 14 14 14 14 14 14 14 14 14 13 13 13 12 12 12 12 12 12 12 12 11
15 15 15 15 15 15 15 14 14 14 14 14 14 14 14 14 14 13 13 13 13 13 12 12 12 12 12 12 12 11 11 11 11
15 15 15 15 14 14 14 14 14 14 14 13 13 13 13 13 13 13 13 12 12 12 12 12 12 12 12 11 11 11 11 11 11
15 15 15 14 14 14 14 14 13 13 13 13 13 13 13 13 13 13 13 12 13 13 12 12 12 11 11 11 11 11 11 11 10
15 14 14 14 13 13 13 13 13 13 13 13 13 13 13 13 13 13 13 12 12 12 13 12 12 11 11 11 11 11 11 11 11
15 15 14 13 14 14 13 14 14 13 13 12 12 12 12 13 13 13 13 13 12 12 12 12 11 11 10 10 10 10 10 10 10
14 14 13 13 13 13 13 13 13 12 12 12 12 12 12 12 13 13 13 13 12 12 11 11 10 10 10 9 9 9 9 9 9
14 13 13 13 13 13 13 12 12 11 11 11 11 11 12 12 12 12 12 12 12 12 11 11 10 9 9 9 8 9 9 9 9
14 13 13 13 14 14 14 13 13 11 11 11 11 10 11 10 11 11 11 11 11 11 10 10 10 9 9 8 8 8 8 8 8
15 15 14 14 14 14 13 13 12 12 12 11 10 10 9 10 10 10 11 11 10 10 9 9 10 10 9 7 6 7 7 8 8

GFSFLT1_850_temp_090.txt.gz
Temp
18 18 18 17 17 17 17 16 16 16 15 15 14 14 14 15 14 15 15 16 16 16 16 16 15 13 13 13 13 13 14 14 14
18 18 18 18 17 17 17 16 16 16 16 15 15 15 15 15 14 15 15 15 16 16 16 15 15 15 14 14 14 14 14 14 14
18 18 18 18 18 17 17 17 17 16 16 16 15 15 15 15 14 15 15 15 15 15 15 15 15 15 15 15 15 14 14 15 14
18 18 18 18 18 17 17 17 17 16 16 16 15 15 15 15 15 14 14 15 15 15 15 15 15 15 15 15 15 15 15 15 14
18 18 17 17 17 17 17 17 17 17 16 16 15 15 14 15 14 14 14 14 14 14 15 14 14 14 14 14 14 14 14 14 14
18 18 17 17 17 17 17 17 17 16 16 16 16 15 14 14 14 14 14 14 14 14 14 14 14 14 14 14 14 14 14 14 14
17 17 17 17 17 17 17 16 16 16 16 16 15 15 15 15 14 14 14 14 14 14 14 14 14 14 14 13 13 13 13 13 13
17 17 17 17 17 17 17 16 16 16 16 15 15 15 15 15 15 14 14 14 13 13 14 14 13 13 13 13 13 13 13 13 13
17 17 16 16 16 16 16 16 15 15 15 15 15 15 15 14 14 14 14 14 13 13 13 13 13 13 13 13 12 12 12 12 12
16 16 16 16 16 16 16 15 15 15 15 14 14 14 14 14 14 14 14 13 13 13 13 13 12 12 12 12 12 12 12 11 12
16 16 16 16 16 15 15 15 15 14 14 14 14 14 14 14 14 14 13 13 13 12 12 12 12 12 12 12 12 11 12 11 11
15 16 16 16 15 15 15 14 14 14 14 14 14 13 13 13 13 13 13 13 13 12 12 12 12 12 12 12 12 11 11 11 11
15 15 15 15 15 14 14 14 14 14 13 13 13 13 13 13 13 13 13 12 13 12 12 12 12 12 12 12 11 11 11 11 10
15 15 15 14 14 14 13 13 13 13 13 13 13 13 13 13 12 13 13 12 13 13 12 12 12 12 11 12 11 11 11 11 10
15 15 15 14 13 13 13 13 13 13 13 13 13 13 13 13 13 13 13 12 12 12 13 13 12 12 11 11 10 10 10 10 10
15 15 14 14 13 13 13 13 13 13 13 13 13 13 13 12 13 13 13 12 12 12 12 12 12 12 11 10 10 10 10 10 10
15 14 14 14 13 13 13 13 13 12 12 12 12 12 12 12 12 12 13 13 12 12 12 11 12 11 10 9 9 9 9 9 9
14 14 14 13 13 13 12 12 12 12 11 11 11 11 12 11 12 11 11 11 11 11 11 11 11 10 10 9 8 8 8 8 9
15 14 14 14 13 13 12 12 12 12 12 12 11 11 10 11 11 11 10 10 10 10 10 10 10 9 10 10 9 8 8 7 8
15 14 14 14 13 14 14 13 13 12 12 12 11 10 10 9 9 10 10 10 10 10 9 9 9 8 8 9 9 8 7 7 7

GFSFLT1_850_temp_093.txt.gz
Temp
18 18 18 17 17 17 17 17 16 16 16 16 15 15 15 15 15 15 15 16 16 16 16 16 14 12 13 13 13 13 14 14 14
18 18 18 17 17 17 17 16 16 16 15 15 15 15 15 15 15 15 15 15 15 15 15 15 15 15 15 15 14 14 15 14 15
18 18 18 17 17 17 17 16 16 16 16 15 15 15 15 15 15 15 15 15 15 15 15 15 15 15 15 15 15 15 15 15 15
18 18 18 18 17 17 17 16 16 15 15 15 15 15 15 15 15 14 14 14 14 14 15 15 14 14 14 14 14 14 14 14 14
17 17 17 17 17 17 17 16 16 15 15 15 15 15 15 15 15 14 14 14 14 14 14 14 14 14 14 14 14 14 14 14 14
17 17 17 17 17 17 16 16 16 15 15 15 15 15 15 15 14 14 14 14 13 14 14 14 14 14 14 14 14 14 13 13 13
16 16 17 16 16 16 16 16 16 15 15 15 15 15 14 15 14 14 14 14 13 13 14 14 13 13 13 13 13 13 13 13 13
16 16 16 16 16 16 16 16 15 15 15 15 15 15 14 14 14 14 14 13 13 13 13 13 13 13 13 13 13 13 12 12 12
16 16 16 17 16 16 16 15 15 15 15 14 14 14 14 14 14 14 14 13 13 13 13 13 13 13 13 13 12 12 12 12 12
16 16 16 16 16 16 15 15 15 15 14 14 14 14 14 14 14 14 13 13 13 12 12 12 12 12 13 12 12 12 12 11 11
15 16 15 15 15 15 15 15 14 14 14 14 14 14 14 13 13 13 13 13 12 12 12 12 12 12 12 12 12 11 11 11 11
15 15 15 15 15 15 15 14 14 14 14 14 13 13 13 13 13 13 13 12 12 12 12 12 12 12 12 12 12 11 11 11 11
14 15 15 15 14 14 14 14 14 13 13 13 13 13 13 13 13 12 12 12 13 13 13 13 12 12 12 12 11 11 11 11 11
14 14 14 14 14 14 14 13 13 13 13 13 13 13 13 13 13 13 12 12 12 13 12 12 12 12 12 12 12 11 11 10 10
15 15 14 14 14 13 13 13 13 13 13 13 13 13 13 13 13 12 12 12 12 12 13 13 12 12 12 11 10 10 10 10 10
15 14 14 14 14 14 13 13 13 13 13 13 13 13 12 12 12 12 12 12 12 12 13 12 12 11 11 10 10 9 9 9 9
15 15 15 14 14 13 13 13 13 12 12 12 12 12 12 12 12 12 12 12 12 12 12 11 11 11 11 10 10 9 8 8 9
15 14 14 14 14 13 13 12 12 12 12 12 11 11 11 11 11 11 11 11 11 10 10 11 10 10 10 10 10 10 9 8 9
15 14 14 14 14 14 13 12 12 12 12 12 12 11 10 10 10 11 10 10 10 10 10 10 9 9 9 9 9 9 9 8 8
15 16 14 14 14 13 13 13 13 13 13 12 12 11 10 10 9 9 10 10 10 10 10 9 9 8 8 8 8 8 8 8 8

GFSFLT1_850_temp_096.txt.gz
Temp
18 18 17 17 17 16 16 16 16 16 16 15 15 15 15 15 16 16 15 15 15 15 15 15 15 14 14 14 15 15 15 15 15
18 18 17 17 17 17 16 16 16 16 15 15 15 15 15 15 15 15 15 15 15 15 15 15 15 15 15 15 15 15 15 15 15
18 18 17 17 16 16 16 16 16 15 15 15 15 15 15 15 15 15 15 15 15 14 15 15 15 15 15 15 14 14 14 14 14
17 17 17 16 16 16 16 16 15 15 15 15 15 15 15 15 14 15 14 14 14 14 14 14 14 14 14 14 14 14 14 14 14
17 17 17 16 16 16 16 15 15 15 15 15 15 15 14 14 14 14 14 14 14 14 14 14 14 14 14 14 14 14 13 13 14
17 17 17 16 16 16 16 16 15 15 15 15 15 15 14 14 14 14 14 14 14 13 13 13 13 13 13 13 13 13 13 13 13
16 16 16 16 16 16 16 16 16 15 15 15 15 15 14 14 14 14 14 14 14 13 13 13 13 13 13 13 13 13 13 13 13
16 16 16 16 16 16 15 15 15 15 15 15 14 14 14 14 14 14 14 13 13 13 13 13 13 13 13 12 12 12 12 12 12
15 16 15 15 15 16 15 15 15 15 15 14 14 14 14 14 14 14 13 13 13 13 12 12 13 13 13 12 12 12 12 11 12
15 15 15 15 15 15 15 15 14 14 14 14 14 14 14 14 14 13 13 13 13 12 12 12 12 12 12 12 11 12 12 12 11
15 15 15 15 15 15 15 15 14 14 14 14 14 14 13 13 13 13 13 12 12 12 12 12 12 12 12 12 11 11 11 11 11
15 15 15 14 14 14 14 14 14 14 13 13 13 13 13 13 12 12 12 12 12 13 13 13 13 12 12 11 11 11 11 11 11
14 14 14 14 14 14 14 14 13 13 13 13 13 13 13 12 12 12 13 13 12 12 13 12 12 12 12 11 11 11 11 11 11
14 14 14 14 14 13 13 13 13 13 13 13 13 13 13 13 13 13 12 12 12 12 12 12 12 12 12 12 12 11 11 10 10
14 14 14 13 14 13 13 13 13 13 13 13 13 13 13 12 12 12 12 12 12 12 12 12 12 12 11 11 11 10 10 9 9
14 14 14 14 14 13 13 13 13 13 13 13 13 13 13 12 12 12 13 12 12 12 12 12 12 12 11 11 11 11 10 9 9
15 14 14 14 14 14 13 13 13 13 12 12 12 12 12 13 12 12 12 12 12 12 12 12 12 11 11 11 10 10 10 9 9
15 14 14 14 14 13 13 13 13 13 12 12 11 11 11 11 11 11 11 11 10 11 11 10 10 10 10 10 9 9 9 9 9
14 14 14 14 14 14 13 13 13 13 12 12 11 11 10 10 10 10 10 10 10 10 10 10 10 10 9 9 9 8 8 9 9
14 14 12 12 14 14 13 14 13 13 13 12 12 11 11 10 9 9 9 9 9 9 10 10 9 9 9 9 8 8 8 9 8

GFSFLT1_850_temp_099.txt.gz
Temp
18 17 17 17 16 16 16 16 15 15 15 15 15 15 15 15 15 15 15 15 15 15 15 15 15 15 15 15 15 15 15 15 15
17 17 17 16 16 16 16 15 15 15 15 15 15 15 15 15 15 15 15 15 15 15 15 15 15 15 15 15 15 15 15 15 15
17 17 16 16 16 15 15 15 15 15 15 15 15 15 15 15 15 15 15 15 15 15 15 15 15 15 15 15 14 14 15 14 14
17 17 16 16 16 16 15 15 15 15 14 15 15 15 14 14 14 14 14 15 14 14 14 14 14 14 14 14 14 14 14 14 14
17 17 17 16 16 16 15 15 15 15 15 14 14 14 14 14 14 14 14 14 14 14 14 14 14 14 14 14 14 14 13 13 13
17 17 17 16 16 16 16 15 15 15 15 15 15 15 14 14 14 14 14 14 14 14 14 14 13 13 13 13 13 13 13 13 13
16 16 16 16 16 16 16 15 15 15 15 15 15 14 14 14 14 14 14 14 14 13 13 13 13 13 13 13 13 13 12 12 12
16 16 16 16 16 15 15 15 15 15 15 14 14 14 14 14 14 14 14 14 13 13 13 13 13 13 13 13 12 12 12 12 12
16 16 16 16 15 15 15 15 15 15 14 14 14 14 14 14 14 14 13 13 13 13 12 13 13 13 12 12 12 12 12 12 12
15 15 15 15 15 15 15 14 14 14 14 14 14 14 14 13 13 13 13 13 13 12 12 12 13 12 12 12 12 12 12 12 12
15 15 15 15 15 14 14 14 14 14 14 14 14 14 13 13 13 13 12 12 12 12 12 13 13 12 12 12 12 11 11 11 12
15 15 15 15 14 14 14 14 14 14 14 13 13 13 13 13 12 12 12 12 12 13 13 13 13 12 12 12 12 11 11 11 11
15 15 15 14 14 14 14 14 14 13 13 13 13 13 13 12 13 12 13 13 12 12 12 13 12 12 12 11 11 11 12 11 11
15 15 15 14 14 14 14 13 13 13 13 13 13 13 13 13 13 13 12 12 12 12 12 12 12 12 12 11 11 11 11 11 10
14 14 14 14 14 14 13 13 13 13 13 13 13 13 13 13 12 12 12 13 12 12 12 12 12 12 11 11 11 11 11 10 10
14 14 13 13 14 14 13 13 13 13 13 13 13 13 13 12 13 13 13 13 12 12 12 12 12 12 12 11 11 10 10 10 9
14 14 14 14 14 13 14 13 13 13 13 13 12 12 12 12 13 12 11 11 12 12 12 11 12 11 11 11 10 10 10 9 9
15 13 14 14 14 14 13 13 13 13 13 12 12 11 11 11 11 11 11 10 11 11 11 11 11 11 10 10 10 10 9 9 9
14 14 13 13 13 13 12 13 13 13 12 12 12 12 11 10 10 10 10 10 10 10 10 10 10 10 10 10 9 9 9 8 8
13 13 13 12 12 11 11 11 12 12 13 12 12 12 11 11 9 9 9 9 9 9 9 9 9 9 9 9 9 8 8 8 8

GFSFLT1_850_temp_102.txt.gz
Temp
17 17 14 13 14 15 14 14 15 15 15 15 15 15 15 15 14 15 15 15 15 15 15 15 15 15 15 15 15 15 15 15 15
17 17 16 15 16 15 15 15 15 15 15 15 15 15 15 14 15 14 13 15 15 15 15 15 15 15 15 15 14 14 14 14 15
17 17 16 16 16 15 15 15 15 15 15 15 15 15 15 14 14 14 15 15 15 15 14 14 14 14 14 14 14 14 14 14 14
17 17 16 16 16 16 16 15 15 15 15 15 15 15 15 13 14 13 13 14 14 14 14 14 14 14 14 14 14 14 14 14 14
17 17 16 16 16 16 16 16 15 15 15 15 15 15 15 13 14 14 14 14 14 14 14 14 14 14 13 13 13 13 13 13 13
16 16 16 16 16 16 16 15 15 15 15 15 15 15 13 13 14 13 14 14 14 14 14 13 13 13 13 13 13 13 13 13 13
13 16 16 16 16 16 16 15 15 15 14 15 15 14 14 14 14 13 14 14 14 13 13 13 13 13 13 13 13 13 12 12 12
15 16 15 15 15 15 15 15 14 15 14 14 14 14 14 13 14 14 14 14 13 13 13 13 13 13 12 12 12 12 12 12 12
15 15 15 15 15 14 15 13 14 15 14 13 13 14 14 13 14 13 14 13 13 13 13 13 13 13 12 12 12 12 12 12 12
16 16 16 15 15 15 15 14 14 14 13 14 13 13 13 13 13 13 13 13 13 12 12 13 12 12 12 12 12 12 12 12 12
16 16 16 15 15 15 15 13 13 13 14 13 13 13 13 13 13 13 12 13 12 12 12 13 13 12 12 12 12 12 12 12 12
15 15 15 15 15 15 15 14 14 14 14 13 13 13 13 13 13 12 12 13 13 12 13 13 12 12 12 12 12 11 11 11 12
15 15 14 13 14 14 14 14 14 13 13 13 13 13 13 13 13 13 12 12 12 12 12 12 12 12 12 12 11 11 11 12 11
15 14 13 14 13 14 13 13 13 13 13 13 13 13 13 13 12 13 12 12 13 12 12 12 12 12 12 12 11 11 11 11 11
15 14 14 13 13 13 13 13 13 13 13 13 13 13 13 12 12 12 12 12 13 13 12 12 12 12 12 11 11 11 11 11 10
14 14 14 13 13 14 13 13 12 13 13 13 13 13 12 12 13 13 13 13 12 12 12 11 12 12 11 11 11 11 10 10 10
14 14 14 14 13 13 13 12 13 13 13 13 13 13 13 12 13 13 12 12 11 12 12 11 11 11 11 11 10 10 10 10 10
14 14 14 14 13 12 13 13 13 12 13 13 13 13 14 12 11 11 11 11 11 11 11 11 11 11 10 10 10 9 9 9 9
14 13 13 14 13 12 12 13 12 12 12 12 12 12 11 11 12 10 11 11 10 10 10 10 10 10 10 9 9 9 9 9 8
14 14 13 13 13 12 11 11 11 11 11 11 12 12 13 11 10 11 11 9 10 10 9 9 9 9 9 9 9 9 8 8 8

GFSFLT1_850_temp_105.txt.gz
Temp
17 14 14 13 13 14 14 16 15 15 16 16 16 16 16 14 13 14 14 15 15 15 15 15 15 15 15 15 15 15 15 15 15
15 14 14 13 14 15 15 16 16 15 15 15 15 15 15 13 13 13 14 15 15 15 15 15 15 15 15 15 14 14 15 15 15
15 13 13 15 16 15 16 16 16 15 15 15 15 15 15 13 13 13 15 15 15 14 14 14 14 14 14 14 14 14 14 14 14
16 13 14 15 16 16 16 16 16 16 15 15 15 15 14 14 13 13 14 15 14 14 14 14 14 14 14 14 14 13 13 13 14
14 14 13 14 15 16 16 15 15 15 15 15 15 15 14 13 13 13 14 14 14 14 14 14 14 14 14 13 13 13 13 13 13
14 13 13 15 15 15 15 15 15 15 15 15 15 15 13 14 13 13 14 14 14 14 14 14 13 13 13 13 13 13 13 12 13
13 15 15 15 15 15 15 15 15 15 14 15 15 15 14 14 13 13 14 14 14 14 13 13 13 13 13 13 13 13 13 12 12
13 14 15 15 15 15 15 15 15 14 13 13 13 13 13 14 13 14 14 14 14 13 13 13 13 13 12 13 13 13 13 12 12
12 15 15 15 15 13 14 14 13 13 13 13 14 13 13 14 13 13 14 14 13 13 13 13 13 13 13 12 12 12 12 12 12
13 13 13 13 14 13 13 13 13 13 13 14 14 14 14 14 14 13 13 13 13 13 13 13 13 13 12 12 12 12 12 12 12
14 13 13 13 13 13 13 13 13 14 14 14 14 14 14 14 13 13 13 13 13 13 12 13 13 12 12 12 12 12 11 12 12
14 13 13 13 13 13 14 13 14 14 14 14 14 14 14 14 14 14 13 13 13 13 12 12 12 12 12 12 12 11 11 11 12
14 14 15 15 14 14 13 13 13 13 14 14 14 14 14 14 14 13 13 13 13 12 12 12 12 12 12 12 11 11 11 11 11
15 15 14 13 13 13 13 13 13 13 14 14 14 14 14 14 13 13 13 13 12 12 12 11 12 12 12 12 11 11 11 11 11
14 13 13 13 13 13 13 13 13 14 14 14 14 14 14 13 13 13 12 12 13 13 12 11 12 12 12 12 11 11 11 11 10
13 13 13 13 13 13 13 13 13 13 14 13 14 14 14 13 13 12 12 11 13 12 12 11 11 12 11 11 11 10 10 10 10
14 14 14 14 13 13 13 13 13 13 13 13 14 14 14 13 13 12 12 12 12 12 12 12 11 10 10 11 10 10 10 10 10
14 14 13 14 13 13 13 13 13 13 13 13 14 14 14 14 13 12 12 12 11 11 11 11 11 11 10 10 10 10 10 9 9
14 14 13 13 13 13 13 12 12 12 12 12 12 12 12 12 13 12 11 12 11 11 10 10 10 10 10 10 10 9 9 9 9
14 14 13 13 13 12 13 12 13 12 11 12 12 12 11 11 11 11 12 11 11 10 10 10 10 9 9 9 9 9 9 8 8

GFSFLT1_850_temp_108.txt.gz
Temp
16 15 14 14 16 16 17 17 17 17 16 16 15 15 14 14 14 14 15 15 15 15 15 15 15 15 15 15 15 15 15 15 15
16 14 14 14 15 15 16 16 16 16 16 16 15 15 14 13 13 15 15 15 15 15 15 15 15 15 15 15 15 14 14 14 14
14 13 13 13 13 14 16 16 16 16 16 16 15 15 13 13 13 15 15 15 15 15 15 15 15 14 14 14 14 14 14 14 14
13 13 13 13 13 14 15 15 15 16 16 16 15 14 13 13 13 14 15 15 15 15 15 14 14 14 14 13 13 13 13 13 13
13 13 13 13 13 14 15 15 15 15 15 15 15 15 14 14 13 14 14 15 15 14 14 14 14 13 13 13 13 13 13 13 13
13 13 13 13 13 13 14 15 15 15 15 15 15 14 14 13 13 13 14 14 14 14 14 14 13 13 13 13 13 13 13 12 12
13 13 13 13 12 13 15 15 15 15 15 15 15 14 14 13 13 13 14 14 14 14 14 14 13 13 13 13 13 13 13 12 12
13 14 14 14 15 16 15 15 15 15 14 14 14 14 13 14 13 14 14 14 14 13 13 13 13 13 13 13 13 13 13 12 12
14 15 16 16 15 15 15 15 15 15 14 13 14 14 14 14 13 13 14 14 13 13 13 13 13 13 12 12 12 12 12 12 12
14 15 15 15 15 15 14 14 13 13 14 14 13 14 14 14 14 13 13 13 13 13 13 13 13 13 12 12 12 12 12 12 12
13 14 15 15 14 13 13 14 13 14 13 13 14 14 14 14 14 13 13 13 13 13 12 13 13 12 12 12 12 12 12 11 12
13 13 14 14 13 14 14 14 13 13 14 14 14 14 14 14 14 13 13 13 13 12 12 12 12 12 12 12 12 12 12 11 11
14 14 14 14 14 14 14 14 13 13 13 14 14 14 14 14 14 14 14 13 13 12 12 12 12 12 12 12 12 11 11 11 11
15 14 15 15 14 14 13 13 13 13 14 14 14 14 14 14 14 14 13 13 13 13 12 12 12 12 12 12 11 11 11 11 11
15 15 14 14 13 13 14 13 13 13 14 14 14 14 14 14 14 13 13 13 13 13 12 12 12 12 12 11 11 11 11 10 11
14 14 13 13 14 14 13 13 13 13 14 14 14 14 14 14 13 13 13 12 12 13 12 10 10 12 12 11 11 10 10 11 11
14 14 14 13 13 13 13 13 13 13 13 13 14 13 14 13 14 13 13 12 12 12 12 12 12 12 11 10 10 10 10 10 10
14 14 14 14 14 14 14 13 13 13 13 13 13 13 14 14 13 13 13 13 12 12 11 11 11 11 10 10 10 10 9 9 9
14 14 13 14 14 14 14 13 13 13 12 12 12 12 13 13 12 12 11 12 12 11 11 11 10 10 10 9 9 9 9 9 9
13 13 13 13 13 14 14 14 14 13 12 12 12 12 13 13 13 11 12 11 11 10 9 10 10 10 9 9 9 8 8 8 8

GFSFLT1_850_temp_111.txt.gz
Temp
15 14 15 15 16 16 16 16 16 16 16 15 15 15 14 14 14 15 15 15 15 16 15 15 15 15 15 15 14 14 14 14 14
15 15 15 15 16 16 16 16 16 16 16 15 15 15 15 15 15 15 15 15 15 15 15 15 15 15 14 14 14 14 14 14 14
15 14 14 15 15 15 15 15 16 16 15 15 15 14 14 15 15 15 15 15 15 15 15 15 14 14 14 14 14 14 14 14 13
14 14 14 14 13 15 15 15 15 15 15 15 15 14 14 15 14 14 15 15 15 15 14 14 14 14 14 13 14 13 13 13 13
13 12 13 13 14 15 15 15 15 15 15 15 14 14 14 14 14 14 14 14 14 14 14 14 14 14 14 14 14 13 13 13 13
13 12 13 13 14 15 15 15 15 15 15 15 15 14 14 13 14 14 14 14 14 14 14 14 13 13 13 13 13 13 13 13 13
13 13 13 13 14 15 15 15 15 15 15 15 15 14 14 13 13 13 14 14 14 14 13 13 13 13 13 13 13 13 13 13 13
13 13 13 12 13 15 16 15 15 15 15 15 14 14 13 13 13 13 14 14 14 13 13 13 13 13 13 12 12 12 12 12 12
13 13 13 13 16 16 15 15 15 14 15 14 14 14 14 13 13 13 13 13 13 13 13 13 13 13 12 12 12 12 12 12 12
13 14 15 16 16 15 15 15 15 14 15 14 13 13 14 14 13 13 13 13 13 13 13 12 13 13 12 12 12 12 12 12 12
14 14 15 15 15 15 15 15 15 14 14 14 13 13 13 14 13 13 13 13 13 13 12 12 12 12 12 12 12 12 11 12 12
14 15 15 15 15 14 14 14 13 14 13 13 13 13 14 14 14 14 14 13 13 12 12 12 12 12 12 12 12 12 12 12 11
14 14 15 15 15 14 14 14 14 13 13 13 14 14 14 14 14 14 14 13 13 13 12 12 12 12 12 12 12 12 11 11 11
13 14 14 14 15 14 14 14 13 13 13 14 14 14 14 14 14 14 14 13 13 13 13 13 13 12 12 12 12 11 11 11 10
13 14 14 14 14 14 14 14 14 14 14 14 14 14 14 14 14 14 13 13 13 13 13 13 12 12 12 12 11 11 11 10 10
14 14 14 14 14 14 14 14 13 13 13 13 14 14 14 14 14 14 14 13 13 13 13 12 12 12 12 11 10 10 10 10 10
14 14 14 13 13 13 13 13 13 13 13 13 14 14 14 14 14 14 13 14 13 12 12 12 11 11 11 10 9 10 10 10 10
13 14 14 13 13 14 14 13 13 13 13 13 13 13 13 13 13 13 13 13 12 12 12 11 11 11 11 11 9 10 10 10 9
13 13 13 13 13 13 13 13 14 14 13 13 13 12 12 12 12 12 12 11 11 12 12 12 11 11 10 10 9 9 9 9 9
13 13 12 13 13 13 13 13 14 13 13 14 14 13 12 11 12 12 12 11 10 11 12 12 11 11 10 10 9 9 8 8 8

GFSFLT1_850_temp_114.txt.gz
Temp
15 14 14 16 16 16 16 15 15 14 14 14 15 15 15 15 15 15 15 15 15 15 15 15 15 15 14 14 14 14 14 14 14
15 15 15 16 16 16 16 16 15 15 15 15 15 15 15 15 15 15 15 15 15 15 15 15 15 14 14 14 14 14 14 14 14
15 15 15 16 16 16 16 16 15 15 15 15 15 15 15 15 15 15 15 15 15 15 15 14 14 14 14 14 13 14 14 13 13
15 15 14 15 16 16 16 16 15 15 15 15 14 15 14 14 15 15 15 15 15 15 14 14 14 14 13 13 13 13 13 13 13
14 14 14 15 15 16 16 16 15 15 15 14 14 14 15 14 14 14 14 14 14 14 14 14 14 14 13 13 13 13 13 13 13
14 13 14 13 14 15 16 16 15 15 15 14 14 13 14 14 14 14 14 14 14 14 14 14 13 13 13 13 13 13 13 13 13
13 12 12 13 14 15 15 15 15 15 15 14 14 13 13 14 14 14 14 14 14 14 14 13 13 13 13 13 13 13 13 13 13
13 12 12 12 13 14 15 15 15 15 15 15 14 14 14 14 14 13 14 14 14 14 13 13 13 13 13 13 12 12 12 12 12
13 12 12 12 14 15 15 15 15 15 15 15 14 14 14 14 14 13 13 13 13 13 13 13 13 13 12 12 12 12 12 12 12
12 12 13 13 14 15 15 15 15 15 15 14 14 14 13 14 14 13 13 13 13 13 13 12 13 13 12 12 12 12 12 12 12
14 13 13 14 15 15 15 15 15 15 14 14 14 14 13 13 13 13 13 13 13 13 12 12 12 12 12 12 12 12 12 11 11
14 15 15 16 15 15 15 14 14 14 14 14 13 13 13 13 14 14 14 14 13 13 12 12 12 12 12 12 12 12 12 11 11
14 14 15 15 15 15 14 15 14 14 13 13 13 13 13 13 13 14 14 14 13 13 12 12 12 12 12 12 12 11 11 11 11
14 14 14 14 14 14 14 14 14 14 13 13 13 13 14 14 14 14 14 14 13 13 13 12 13 13 12 12 12 11 11 10 10
13 13 14 14 14 14 14 14 14 14 14 13 13 14 14 14 14 14 14 14 13 13 13 13 13 12 12 12 11 11 10 10 10
13 13 13 14 14 14 14 14 14 13 13 13 13 13 14 14 14 14 14 14 13 13 12 13 13 12 12 11 10 10 10 9 10
13 13 13 14 14 14 14 14 14 13 13 13 13 13 13 13 13 14 14 13 13 13 13 13 13 12 11 10 9 9 10 10 10
13 14 14 14 13 14 14 14 13 13 13 13 13 13 14 14 13 13 13 13 13 13 13 12 12 12 12 11 11 10 9 9 10
14 14 13 13 13 14 14 13 13 14 14 13 13 13 13 13 13 13 12 12 12 12 12 11 11 11 11 11 10 9 9 9 9
13 13 13 13 13 13 13 14 14 13 13 13 14 14 13 13 13 11 11 11 11 12 11 10 11 11 10 10 10 9 8 8 8

GFSFLT1_850_temp_117.txt.gz
Temp
15 13 13 14 14 16 16 16 15 15 14 14 14 14 15 15 15 15 15 15 15 15 15 15 14 14 14 14 14 14 14 14 14
15 15 13 16 16 16 16 16 15 15 15 14 14 14 15 15 15 15 15 15 15 15 15 14 14 14 14 14 14 14 14 14 14
15 15 15 16 16 16 16 16 15 15 15 15 14 14 15 15 15 15 15 15 15 14 14 14 14 14 14 13 13 14 14 14 13
15 15 15 16 16 16 16 16 16 15 15 15 15 14 14 14 15 15 15 15 15 14 14 14 14 14 13 13 13 13 13 13 13
15 15 15 15 16 16 16 16 16 15 15 15 15 14 14 14 14 14 14 14 14 14 14 14 13 13 13 13 13 13 13 13 13
15 15 15 15 15 16 16 16 15 15 15 14 15 14 14 14 14 14 14 14 14 14 14 13 13 13 13 13 13 13 13 13 13
14 14 14 15 15 15 15 15 15 15 15 15 15 14 14 14 14 14 14 14 14 13 13 13 13 13 13 13 13 13 13 13 13
14 13 13 14 13 15 15 15 15 15 15 15 14 14 14 14 14 14 14 14 14 13 13 13 13 13 12 12 12 12 12 12 12
14 13 13 13 14 15 15 15 15 15 15 15 14 14 14 14 14 14 13 13 13 13 13 13 13 12 12 12 12 12 12 12 12
14 14 13 13 13 15 15 15 15 15 15 15 14 14 14 14 14 13 13 13 13 13 13 13 12 13 12 12 12 12 12 12 11
14 14 13 13 13 14 15 15 15 15 15 14 14 14 13 13 13 13 13 13 13 13 12 12 12 12 12 12 12 12 12 11 11
14 14 13 13 13 14 14 14 14 14 14 14 14 14 13 13 13 13 13 13 13 13 12 12 12 12 12 12 12 12 11 11 11
14 13 14 15 13 14 14 14 14 14 14 14 14 14 13 13 13 13 14 14 13 13 13 12 12 12 12 12 12 12 11 11 11
13 14 13 14 14 14 14 14 14 14 14 14 13 13 13 13 13 14 14 14 14 13 13 13 12 12 13 13 12 11 11 11 10
12 12 13 14 13 13 13 14 14 14 14 14 13 13 13 13 13 14 14 14 14 13 13 13 13 13 13 13 12 12 11 11 10
12 11 13 13 13 14 14 14 14 14 13 13 13 13 13 13 14 13 14 14 14 14 13 13 13 13 13 13 12 10 9 10 9
13 13 14 13 13 13 14 14 14 14 13 13 12 13 13 13 13 14 13 14 14 14 13 13 13 13 13 12 11 10 9 9 10
13 12 13 13 13 13 14 14 13 13 13 13 13 13 13 13 13 13 13 13 13 13 13 13 13 12 12 11 11 10 10 9 9
12 12 13 13 13 13 14 13 13 13 13 13 12 13 13 13 13 13 13 12 12 12 12 13 13 12 12 11 11 10 10 10 9
12 12 13 13 13 13 13 13 13 13 13 13 13 13 13 13 13 13 13 12 11 11 12 12 12 12 11 11 10 10 10 9 9